Observation data for Umbarger on 02/11/2018      Previous  Date  Next       Current Mesonet Observations  Soil Data  Daily Summary Page  Observations in Plain Language
KUM1 110600Z 00011KT M10/M14 A3002 RMK A01 T11001138  RH  073%=      5-min Rain = 0
KUM1 110601Z 00011KT M10/M14 A3002 RMK A01 T11001138  RH  073%=      5-min Rain = 0
KUM1 110602Z 00011KT M10/M14 A3002 RMK A01 T11001138  RH  074%=      5-min Rain = 0
KUM1 110603Z 00011KT M10/M14 A3002 RMK A01 T11001138  RH  074%=      5-min Rain = 0
KUM1 110604Z 01011KT M10/M14 A3002 RMK A01 T11001138  RH  074%=      5-min Rain = 0
KUM1 110605Z 01010KT M10/M14 A3002 RMK A01 T11001138  RH  074%=      5-min Rain = 0
KUM1 110606Z 00011KT M10/M14 A3002 RMK A01 T11001139  RH  074%=      5-min Rain = 0
KUM1 110607Z 01013KT M10/M14 A3002 RMK A01 T11001138  RH  074%=      5-min Rain = 0
KUM1 110608Z 00012KT M10/M14 A3002 RMK A01 T11001138  RH  074%=      5-min Rain = 0
KUM1 110609Z 00011KT M10/M14 A3002 RMK A01 T11001138  RH  074%=      5-min Rain = 0
KUM1 110610Z 00011KT M10/M14 A3002 RMK A01 T11001138  RH  074%=      5-min Rain = 0
KUM1 110611Z 00012KT M10/M14 A3002 RMK A01 T11001138  RH  074%=      5-min Rain = 0
KUM1 110612Z 00010KT M10/M14 A3002 RMK A01 T11001138  RH  074%=      5-min Rain = 0
KUM1 110613Z 00011KT M10/M14 A3002 RMK A01 T11001138  RH  074%=      5-min Rain = 0
KUM1 110614Z 00010KT M10/M14 A3002 RMK A01 T11011138  RH  074%=      5-min Rain = 0
KUM1 110615Z 00010KT M10/M14 A3002 RMK A01 T11011139  RH  074%=      5-min Rain = 0
KUM1 110616Z 00011KT M10/M14 A3002 RMK A01 T11011139  RH  074%=      5-min Rain = 0
KUM1 110617Z 01011KT M10/M14 A3002 RMK A01 T11011139  RH  074%=      5-min Rain = 0
KUM1 110618Z 00012KT M10/M14 A3002 RMK A01 T11011139  RH  074%=      5-min Rain = 0
KUM1 110619Z 00010KT M10/M14 A3002 RMK A01 T11011138  RH  074%=      5-min Rain = 0
KUM1 110620Z 00010KT M10/M14 A3002 RMK A01 T11011138  RH  074%=      5-min Rain = 0
KUM1 110621Z 00010KT M10/M14 A3002 RMK A01 T11011139  RH  074%=      5-min Rain = 0
KUM1 110622Z 00012KT M10/M14 A3002 RMK A01 T11011139  RH  074%=      5-min Rain = 0
KUM1 110623Z 01013KT M10/M14 A3002 RMK A01 T11011139  RH  074%=      5-min Rain = 0
KUM1 110624Z 01012KT M10/M14 A3002 RMK A01 T11011138  RH  074%=      5-min Rain = 0
KUM1 110625Z 01012KT M10/M14 A3002 RMK A01 T11011138  RH  074%=      5-min Rain = 0
KUM1 110626Z 01013KT M10/M14 A3002 RMK A01 T11011138  RH  074%=      5-min Rain = 0
KUM1 110627Z 01012KT M10/M14 A3002 RMK A01 T11011138  RH  074%=      5-min Rain = 0
KUM1 110628Z 01012KT M10/M14 A3002 RMK A01 T11001138  RH  074%=      5-min Rain = 0
KUM1 110629Z 01012KT M10/M14 A3002 RMK A01 T11001138  RH  074%=      5-min Rain = 0
KUM1 110630Z 01011KT M10/M14 A3002 RMK A01 T11001138  RH  074%=      5-min Rain = 0
KUM1 110631Z 01013KT M10/M14 A3002 RMK A01 T11001138  RH  074%=      5-min Rain = 0
KUM1 110632Z 01011KT M10/M14 A3002 RMK A01 T11001138  RH  074%=      5-min Rain = 0
KUM1 110633Z 01011KT M10/M14 A3002 RMK A01 T11001138  RH  074%=      5-min Rain = 0
KUM1 110634Z 01011KT M10/M14 A3002 RMK A01 T11001138  RH  074%=      5-min Rain = 0
KUM1 110635Z 01011KT M10/M14 A3002 RMK A01 T11001138  RH  074%=      5-min Rain = 0
KUM1 110636Z 01010KT M10/M14 A3002 RMK A01 T11001138  RH  074%=      5-min Rain = 0
KUM1 110637Z 01012KT M10/M14 A3002 RMK A01 T11001138  RH  074%=      5-min Rain = 0
KUM1 110638Z 01011KT M10/M14 A3002 RMK A01 T11001138  RH  074%=      5-min Rain = 0
KUM1 110639Z 01012KT M10/M14 A3002 RMK A01 T11001138  RH  074%=      5-min Rain = 0
KUM1 110640Z 01010KT M10/M14 A3002 RMK A01 T11001138  RH  074%=      5-min Rain = 0
KUM1 110641Z 01011KT M10/M14 A3003 RMK A01 T11001139  RH  074%=      5-min Rain = 0
KUM1 110642Z 01011KT M10/M14 A3003 RMK A01 T11001138  RH  074%=      5-min Rain = 0
KUM1 110643Z 01013KT M10/M14 A3003 RMK A01 T11001138  RH  074%=      5-min Rain = 0
KUM1 110644Z 01014KT M10/M14 A3003 RMK A01 T11001138  RH  074%=      5-min Rain = 0
KUM1 110645Z 01013KT M10/M14 A3003 RMK A01 T11001138  RH  074%=      5-min Rain = 0
KUM1 110646Z 01012KT M10/M14 A3003 RMK A01 T10991138  RH  074%=      5-min Rain = 0
KUM1 110647Z 01012KT M10/M14 A3003 RMK A01 T10991138  RH  074%=      5-min Rain = 0
KUM1 110648Z 01011KT M10/M14 A3003 RMK A01 T10991138  RH  073%=      5-min Rain = 0
KUM1 110649Z 01010KT M10/M14 A3003 RMK A01 T10991138  RH  073%=      5-min Rain = 0
KUM1 110650Z 01009KT M10/M14 A3003 RMK A01 T10991138  RH  073%=      5-min Rain = 0
KUM1 110651Z 01011KT M10/M14 A3003 RMK A01 T10991138  RH  073%=      5-min Rain = 0
KUM1 110652Z 01009KT M10/M14 A3003 RMK A01 T11001138  RH  073%=      5-min Rain = 0
KUM1 110653Z 02011KT M10/M14 A3003 RMK A01 T11001139  RH  073%=      5-min Rain = 0
KUM1 110654Z 01011KT M10/M14 A3003 RMK A01 T11001138  RH  073%=      5-min Rain = 0
KUM1 110655Z 01011KT M10/M14 A3003 RMK A01 T11001138  RH  073%=      5-min Rain = 0
KUM1 110656Z 01010KT M10/M14 A3003 RMK A01 T11001138  RH  073%=      5-min Rain = 0
KUM1 110657Z 02009KT M10/M14 A3003 RMK A01 T11001138  RH  073%=      5-min Rain = 0
KUM1 110658Z 01009KT M10/M14 A3003 RMK A01 T11001138  RH  073%=      5-min Rain = 0
KUM1 110659Z 01011KT M10/M14 A3003 RMK A01 T11001139  RH  073%=      5-min Rain = 0
KUM1 110700Z 01009KT M10/M14 A3003 RMK A01 T11001139  RH  073%=      5-min Rain = 0
KUM1 110701Z 02009KT M10/M14 A3003 RMK A01 T11001139  RH  073%=      5-min Rain = 0
KUM1 110702Z 02010KT M10/M14 A3003 RMK A01 T11001139  RH  073%=      5-min Rain = 0
KUM1 110703Z 01011KT M10/M14 A3003 RMK A01 T11001139  RH  074%=      5-min Rain = 0
KUM1 110704Z 01011KT M10/M14 A3003 RMK A01 T11001139  RH  074%=      5-min Rain = 0
KUM1 110705Z 01011KT M10/M14 A3003 RMK A01 T11001138  RH  074%=      5-min Rain = 0
KUM1 110706Z 01010KT M10/M14 A3003 RMK A01 T11001139  RH  074%=      5-min Rain = 0
KUM1 110707Z 01009KT M10/M14 A3003 RMK A01 T11001139  RH  074%=      5-min Rain = 0
KUM1 110708Z 01011KT M10/M14 A3003 RMK A01 T11001139  RH  074%=      5-min Rain = 0
KUM1 110709Z 01009KT M10/M14 A3003 RMK A01 T11001138  RH  074%=      5-min Rain = 0
KUM1 110710Z 01010KT M10/M14 A3003 RMK A01 T11001139  RH  074%=      5-min Rain = 0
KUM1 110711Z 01010KT M10/M14 A3003 RMK A01 T11001139  RH  074%=      5-min Rain = 0
KUM1 110712Z 01010KT M10/M14 A3003 RMK A01 T11001138  RH  074%=      5-min Rain = 0
KUM1 110713Z 01009KT M10/M14 A3003 RMK A01 T11001138  RH  074%=      5-min Rain = 0
KUM1 110714Z 01009KT M10/M14 A3003 RMK A01 T11011139  RH  074%=      5-min Rain = 0
KUM1 110715Z 01009KT M10/M14 A3003 RMK A01 T11011139  RH  074%=      5-min Rain = 0
KUM1 110716Z 00011KT M10/M14 A3003 RMK A01 T11011138  RH  074%=      5-min Rain = 0
KUM1 110717Z 01010KT M10/M14 A3003 RMK A01 T11011138  RH  074%=      5-min Rain = 0
KUM1 110718Z 01010KT M10/M14 A3003 RMK A01 T11011139  RH  074%=      5-min Rain = 0
KUM1 110719Z 00009KT M10/M14 A3003 RMK A01 T11011138  RH  074%=      5-min Rain = 0
KUM1 110720Z 01009KT M10/M14 A3003 RMK A01 T11011138  RH  074%=      5-min Rain = 0
KUM1 110721Z 00009KT M10/M14 A3003 RMK A01 T11011139  RH  074%=      5-min Rain = 0
KUM1 110722Z 00011KT M10/M14 A3003 RMK A01 T11011139  RH  074%=      5-min Rain = 0
KUM1 110723Z 01011KT M10/M14 A3003 RMK A01 T11011138  RH  074%=      5-min Rain = 0
KUM1 110724Z 01010KT M10/M14 A3003 RMK A01 T11011138  RH  074%=      5-min Rain = 0
KUM1 110725Z 01010KT M10/M14 A3003 RMK A01 T11011139  RH  074%=      5-min Rain = 0
KUM1 110726Z 01011KT M10/M14 A3003 RMK A01 T11011139  RH  074%=      5-min Rain = 0
KUM1 110727Z 01011KT M10/M14 A3003 RMK A01 T11011138  RH  074%=      5-min Rain = 0
KUM1 110728Z 01010KT M10/M14 A3003 RMK A01 T11011138  RH  074%=      5-min Rain = 0
KUM1 110729Z 01009KT M10/M14 A3003 RMK A01 T11011138  RH  074%=      5-min Rain = 0
KUM1 110730Z 00010KT M10/M14 A3003 RMK A01 T11011139  RH  074%=      5-min Rain = 0
KUM1 110731Z 00009KT M10/M14 A3003 RMK A01 T11011138  RH  074%=      5-min Rain = 0
KUM1 110732Z 00008KT M10/M14 A3003 RMK A01 T11011138  RH  074%=      5-min Rain = 0
KUM1 110733Z 00009KT M10/M14 A3003 RMK A01 T11011138  RH  074%=      5-min Rain = 0
KUM1 110734Z 00008KT M10/M14 A3003 RMK A01 T11011138  RH  074%=      5-min Rain = 0
KUM1 110735Z 00009KT M10/M14 A3003 RMK A01 T11021138  RH  074%=      5-min Rain = 0
KUM1 110736Z 00007KT M10/M14 A3003 RMK A01 T11021139  RH  074%=      5-min Rain = 0
KUM1 110737Z 01008KT M10/M14 A3003 RMK A01 T11021139  RH  074%=      5-min Rain = 0
KUM1 110738Z 00006KT M10/M14 A3003 RMK A01 T11021139  RH  075%=      5-min Rain = 0
KUM1 110739Z 01007KT M10/M14 A3004 RMK A01 T11021138  RH  075%=      5-min Rain = 0
KUM1 110740Z 00008KT M10/M14 A3004 RMK A01 T11021139  RH  075%=      5-min Rain = 0
KUM1 110741Z 00008KT M10/M14 A3004 RMK A01 T11021139  RH  075%=      5-min Rain = 0
KUM1 110742Z 00008KT M10/M14 A3004 RMK A01 T11021138  RH  075%=      5-min Rain = 0
KUM1 110743Z 00009KT M10/M14 A3004 RMK A01 T11021138  RH  075%=      5-min Rain = 0
KUM1 110744Z 36009KT M10/M14 A3004 RMK A01 T11021139  RH  075%=      5-min Rain = 0
KUM1 110745Z 00009KT M10/M14 A3004 RMK A01 T11021138  RH  075%=      5-min Rain = 0
KUM1 110746Z 36008KT M10/M14 A3004 RMK A01 T11021138  RH  075%=      5-min Rain = 0
KUM1 110747Z 36008KT M10/M14 A3004 RMK A01 T11021139  RH  075%=      5-min Rain = 0
KUM1 110748Z 36008KT M10/M14 A3004 RMK A01 T11021139  RH  075%=      5-min Rain = 0
KUM1 110749Z 00008KT M10/M14 A3004 RMK A01 T11021138  RH  075%=      5-min Rain = 0
KUM1 110750Z 36009KT M10/M14 A3004 RMK A01 T11021138  RH  075%=      5-min Rain = 0
KUM1 110751Z 00010KT M10/M14 A3004 RMK A01 T11021139  RH  075%=      5-min Rain = 0
KUM1 110752Z 00009KT M10/M14 A3004 RMK A01 T11021139  RH  075%=      5-min Rain = 0
KUM1 110753Z 00008KT M10/M14 A3004 RMK A01 T11021138  RH  075%=      5-min Rain = 0
KUM1 110754Z 00009KT M10/M14 A3004 RMK A01 T11021138  RH  075%=      5-min Rain = 0
KUM1 110755Z 00008KT M10/M14 A3004 RMK A01 T11021138  RH  074%=      5-min Rain = 0
KUM1 110756Z 00007KT M10/M14 A3004 RMK A01 T11021139  RH  074%=      5-min Rain = 0
KUM1 110757Z 00010KT M10/M14 A3004 RMK A01 T11021139  RH  074%=      5-min Rain = 0
KUM1 110758Z 01009KT M10/M14 A3004 RMK A01 T11011139  RH  074%=      5-min Rain = 0
KUM1 110759Z 00010KT M10/M14 A3004 RMK A01 T11011138  RH  074%=      5-min Rain = 0
KUM1 110800Z 00010KT M10/M14 A3004 RMK A01 T11011139  RH  074%=      5-min Rain = 0
KUM1 110801Z 01008KT M10/M14 A3004 RMK A01 T11011138  RH  074%=      5-min Rain = 0
KUM1 110802Z 00011KT M10/M14 A3004 RMK A01 T11011139  RH  074%=      5-min Rain = 0
KUM1 110803Z 00009KT M10/M14 A3004 RMK A01 T11011139  RH  074%=      5-min Rain = 0
KUM1 110804Z 00011KT M10/M14 A3004 RMK A01 T11011139  RH  074%=      5-min Rain = 0
KUM1 110805Z 00011KT M10/M14 A3004 RMK A01 T11011138  RH  074%=      5-min Rain = 0
KUM1 110806Z 00012KT M10/M14 A3004 RMK A01 T11011139  RH  074%=      5-min Rain = 0
KUM1 110807Z 36011KT M10/M14 A3004 RMK A01 T11011139  RH  074%=      5-min Rain = 0
KUM1 110808Z 36010KT M10/M14 A3004 RMK A01 T11011138  RH  074%=      5-min Rain = 0
KUM1 110809Z 00010KT M10/M14 A3004 RMK A01 T11011138  RH  074%=      5-min Rain = 0
KUM1 110810Z 36010KT M10/M14 A3004 RMK A01 T11011139  RH  074%=      5-min Rain = 0
KUM1 110811Z 36011KT M10/M14 A3004 RMK A01 T11011139  RH  074%=      5-min Rain = 0
KUM1 110812Z 36010KT M10/M14 A3005 RMK A01 T11011138  RH  074%=      5-min Rain = 0
KUM1 110813Z 36010KT M10/M14 A3005 RMK A01 T11011138  RH  074%=      5-min Rain = 0
KUM1 110814Z 00010KT M10/M14 A3005 RMK A01 T11011138  RH  074%=      5-min Rain = 0
KUM1 110815Z 00008KT M10/M14 A3005 RMK A01 T11011138  RH  074%=      5-min Rain = 0
KUM1 110816Z 00008KT M10/M14 A3005 RMK A01 T11011138  RH  074%=      5-min Rain = 0
KUM1 110817Z 00008KT M10/M14 A3005 RMK A01 T11021138  RH  074%=      5-min Rain = 0
KUM1 110818Z 36007KT M10/M14 A3005 RMK A01 T11021139  RH  074%=      5-min Rain = 0
KUM1 110819Z 00008KT M10/M14 A3005 RMK A01 T11021139  RH  074%=      5-min Rain = 0
KUM1 110820Z 00007KT M10/M14 A3005 RMK A01 T11021139  RH  074%=      5-min Rain = 0
KUM1 110821Z 00007KT M10/M14 A3005 RMK A01 T11021139  RH  075%=      5-min Rain = 0
KUM1 110822Z 00008KT M10/M14 A3005 RMK A01 T11031139  RH  075%=      5-min Rain = 0
KUM1 110823Z 00008KT M10/M14 A3005 RMK A01 T11021139  RH  075%=      5-min Rain = 0
KUM1 110824Z 00008KT M10/M14 A3005 RMK A01 T11021139  RH  075%=      5-min Rain = 0
KUM1 110825Z 00008KT M10/M14 A3005 RMK A01 T11031139  RH  075%=      5-min Rain = 0
KUM1 110826Z 00008KT M10/M14 A3005 RMK A01 T11031139  RH  075%=      5-min Rain = 0
KUM1 110827Z 00008KT M10/M14 A3005 RMK A01 T11031139  RH  075%=      5-min Rain = 0
KUM1 110828Z 36008KT M10/M14 A3005 RMK A01 T11031139  RH  075%=      5-min Rain = 0
KUM1 110829Z 00008KT M10/M14 A3005 RMK A01 T11031139  RH  075%=      5-min Rain = 0
KUM1 110830Z 36008KT M10/M14 A3005 RMK A01 T11031139  RH  075%=      5-min Rain = 0
KUM1 110831Z 36008KT M10/M14 A3005 RMK A01 T11031139  RH  075%=      5-min Rain = 0
KUM1 110832Z 36007KT M10/M14 A3005 RMK A01 T11031139  RH  075%=      5-min Rain = 0
KUM1 110833Z 00008KT M10/M14 A3005 RMK A01 T11041139  RH  075%=      5-min Rain = 0
KUM1 110834Z 00007KT M10/M14 A3004 RMK A01 T11041140  RH  075%=      5-min Rain = 0
KUM1 110835Z 00007KT M10/M14 A3004 RMK A01 T11041139  RH  075%=      5-min Rain = 0
KUM1 110836Z 00006KT M10/M14 A3004 RMK A01 T11041140  RH  075%=      5-min Rain = 0
KUM1 110837Z 00006KT M11/M14 A3004 RMK A01 T11051140  RH  075%=      5-min Rain = 0
KUM1 110838Z 00007KT M11/M14 A3004 RMK A01 T11051140  RH  075%=      5-min Rain = 0
KUM1 110839Z 00006KT M11/M14 A3004 RMK A01 T11051140  RH  076%=      5-min Rain = 0
KUM1 110840Z 00006KT M11/M14 A3004 RMK A01 T11051140  RH  076%=      5-min Rain = 0
KUM1 110841Z 00007KT M11/M14 A3004 RMK A01 T11051140  RH  076%=      5-min Rain = 0
KUM1 110842Z 36007KT M11/M14 A3004 RMK A01 T11051140  RH  076%=      5-min Rain = 0
KUM1 110843Z 00007KT M11/M14 A3004 RMK A01 T11061140  RH  076%=      5-min Rain = 0
KUM1 110844Z 36007KT M11/M14 A3004 RMK A01 T11061140  RH  076%=      5-min Rain = 0
KUM1 110845Z 36007KT M11/M14 A3004 RMK A01 T11061140  RH  076%=      5-min Rain = 0
KUM1 110846Z 36008KT M11/M14 A3004 RMK A01 T11061140  RH  076%=      5-min Rain = 0
KUM1 110847Z 36008KT M11/M14 A3004 RMK A01 T11061140  RH  076%=      5-min Rain = 0
KUM1 110848Z 36008KT M11/M14 A3004 RMK A01 T11061140  RH  076%=      5-min Rain = 0
KUM1 110849Z 36007KT M11/M14 A3004 RMK A01 T11051139  RH  076%=      5-min Rain = 0
KUM1 110850Z 36008KT M11/M14 A3004 RMK A01 T11051139  RH  076%=      5-min Rain = 0
KUM1 110851Z 36008KT M11/M14 A3004 RMK A01 T11051139  RH  076%=      5-min Rain = 0
KUM1 110852Z 36007KT M11/M14 A3004 RMK A01 T11051139  RH  076%=      5-min Rain = 0
KUM1 110853Z 36006KT M11/M14 A3004 RMK A01 T11051139  RH  076%=      5-min Rain = 0
KUM1 110854Z 36006KT M11/M14 A3004 RMK A01 T11051139  RH  076%=      5-min Rain = 0
KUM1 110855Z 36007KT M11/M14 A3004 RMK A01 T11051139  RH  076%=      5-min Rain = 0
KUM1 110856Z 36007KT M11/M14 A3004 RMK A01 T11051139  RH  076%=      5-min Rain = 0
KUM1 110857Z 36006KT M11/M14 A3004 RMK A01 T11051139  RH  076%=      5-min Rain = 0
KUM1 110858Z 00007KT M11/M14 A3004 RMK A01 T11051139  RH  076%=      5-min Rain = 0
KUM1 110859Z 00007KT M11/M14 A3004 RMK A01 T11051139  RH  076%=      5-min Rain = 0
KUM1 110900Z 36007KT M11/M14 A3004 RMK A01 T11051139  RH  076%=      5-min Rain = 0
KUM1 110901Z 36007KT M11/M14 A3004 RMK A01 T11051139  RH  076%=      5-min Rain = 0
KUM1 110902Z 36007KT M11/M14 A3004 RMK A01 T11051139  RH  076%=      5-min Rain = 0
KUM1 110903Z 00008KT M11/M14 A3004 RMK A01 T11051138  RH  076%=      5-min Rain = 0
KUM1 110904Z 00008KT M11/M14 A3004 RMK A01 T11051138  RH  076%=      5-min Rain = 0
KUM1 110905Z 00007KT M11/M14 A3004 RMK A01 T11051138  RH  076%=      5-min Rain = 0
KUM1 110906Z 01007KT M11/M14 A3004 RMK A01 T11051138  RH  076%=      5-min Rain = 0
KUM1 110907Z 36009KT M10/M14 A3004 RMK A01 T11041138  RH  076%=      5-min Rain = 0
KUM1 110908Z 36008KT M10/M14 A3004 RMK A01 T11041138  RH  076%=      5-min Rain = 0
KUM1 110909Z 00009KT M10/M14 A3004 RMK A01 T11041138  RH  076%=      5-min Rain = 0
KUM1 110910Z 00008KT M10/M14 A3004 RMK A01 T11041138  RH  076%=      5-min Rain = 0
KUM1 110911Z 00008KT M10/M14 A3004 RMK A01 T11041138  RH  076%=      5-min Rain = 0
KUM1 110912Z 36007KT M10/M14 A3004 RMK A01 T11041138  RH  076%=      5-min Rain = 0
KUM1 110913Z 36008KT M10/M14 A3004 RMK A01 T11041138  RH  076%=      5-min Rain = 0
KUM1 110914Z 36008KT M10/M14 A3004 RMK A01 T11041138  RH  076%=      5-min Rain = 0
KUM1 110915Z 36008KT M10/M14 A3004 RMK A01 T11041138  RH  076%=      5-min Rain = 0
KUM1 110916Z 36007KT M10/M14 A3004 RMK A01 T11041138  RH  076%=      5-min Rain = 0
KUM1 110917Z 00008KT M10/M14 A3004 RMK A01 T11041139  RH  076%=      5-min Rain = 0
KUM1 110918Z 00009KT M10/M14 A3004 RMK A01 T11041138  RH  076%=      5-min Rain = 0
KUM1 110919Z 36008KT M10/M14 A3004 RMK A01 T11041138  RH  076%=      5-min Rain = 0
KUM1 110920Z 00008KT M10/M14 A3004 RMK A01 T11041139  RH  076%=      5-min Rain = 0
KUM1 110921Z 00008KT M10/M14 A3004 RMK A01 T11041138  RH  076%=      5-min Rain = 0
KUM1 110922Z 36006KT M10/M14 A3004 RMK A01 T11041138  RH  076%=      5-min Rain = 0
KUM1 110923Z 36007KT M10/M14 A3004 RMK A01 T11031138  RH  076%=      5-min Rain = 0
KUM1 110924Z 36008KT M10/M14 A3004 RMK A01 T11041139  RH  076%=      5-min Rain = 0
KUM1 110925Z 36008KT M10/M14 A3004 RMK A01 T11041139  RH  075%=      5-min Rain = 0
KUM1 110926Z 36009KT M10/M14 A3004 RMK A01 T11031138  RH  075%=      5-min Rain = 0
KUM1 110927Z 36009KT M10/M14 A3004 RMK A01 T11031139  RH  075%=      5-min Rain = 0
KUM1 110928Z 36008KT M10/M14 A3004 RMK A01 T11041139  RH  075%=      5-min Rain = 0
KUM1 110929Z 36008KT M10/M14 A3004 RMK A01 T11031138  RH  076%=      5-min Rain = 0
KUM1 110930Z 36008KT M10/M14 A3004 RMK A01 T11031138  RH  075%=      5-min Rain = 0
KUM1 110931Z 36008KT M10/M14 A3004 RMK A01 T11041139  RH  075%=      5-min Rain = 0
KUM1 110932Z 36008KT M10/M14 A3004 RMK A01 T11041139  RH  075%=      5-min Rain = 0
KUM1 110933Z 36008KT M10/M14 A3004 RMK A01 T11031139  RH  075%=      5-min Rain = 0
KUM1 110934Z 36008KT M10/M14 A3004 RMK A01 T11031138  RH  075%=      5-min Rain = 0
KUM1 110935Z 36008KT M10/M14 A3004 RMK A01 T11041139  RH  075%=      5-min Rain = 0
KUM1 110936Z 36008KT M10/M14 A3004 RMK A01 T11041139  RH  075%=      5-min Rain = 0
KUM1 110937Z 36008KT M10/M14 A3004 RMK A01 T11031139  RH  075%=      5-min Rain = 0
KUM1 110938Z 36008KT M10/M14 A3004 RMK A01 T11031139  RH  075%=      5-min Rain = 0
KUM1 110939Z 36009KT M10/M14 A3004 RMK A01 T11041139  RH  075%=      5-min Rain = 0
KUM1 110940Z 00008KT M10/M14 A3004 RMK A01 T11041139  RH  075%=      5-min Rain = 0
KUM1 110941Z 36009KT M10/M14 A3004 RMK A01 T11031139  RH  075%=      5-min Rain = 0
KUM1 110942Z 00008KT M10/M14 A3004 RMK A01 T11031139  RH  075%=      5-min Rain = 0
KUM1 110943Z 00007KT M10/M14 A3004 RMK A01 T11041139  RH  075%=      5-min Rain = 0
KUM1 110944Z 35008KT M10/M14 A3004 RMK A01 T11041139  RH  075%=      5-min Rain = 0
KUM1 110945Z 35009KT M10/M14 A3005 RMK A01 T11031139  RH  075%=      5-min Rain = 0
KUM1 110946Z 35007KT M10/M14 A3005 RMK A01 T11041139  RH  075%=      5-min Rain = 0
KUM1 110947Z 35007KT M10/M14 A3005 RMK A01 T11041139  RH  075%=      5-min Rain = 0
KUM1 110948Z 36007KT M10/M14 A3005 RMK A01 T11031139  RH  075%=      5-min Rain = 0
KUM1 110949Z 35007KT M10/M14 A3005 RMK A01 T11031139  RH  075%=      5-min Rain = 0
KUM1 110950Z 35007KT M10/M14 A3005 RMK A01 T11031139  RH  075%=      5-min Rain = 0
KUM1 110951Z 35007KT M10/M14 A3005 RMK A01 T11041139  RH  075%=      5-min Rain = 0
KUM1 110952Z 35007KT M10/M14 A3005 RMK A01 T11031139  RH  075%=      5-min Rain = 0
KUM1 110953Z 35009KT M10/M14 A3005 RMK A01 T11031139  RH  075%=      5-min Rain = 0
KUM1 110954Z 35008KT M10/M14 A3005 RMK A01 T11031139  RH  075%=      5-min Rain = 0
KUM1 110955Z 35007KT M10/M14 A3005 RMK A01 T11031139  RH  075%=      5-min Rain = 0
KUM1 110956Z 35008KT M10/M14 A3005 RMK A01 T11031139  RH  075%=      5-min Rain = 0
KUM1 110957Z 35008KT M10/M14 A3005 RMK A01 T11031139  RH  075%=      5-min Rain = 0
KUM1 110958Z 35007KT M10/M14 A3005 RMK A01 T11031139  RH  075%=      5-min Rain = 0
KUM1 110959Z 35006KT M10/M14 A3005 RMK A01 T11031139  RH  075%=      5-min Rain = 0
KUM1 111000Z 35006KT M10/M14 A3005 RMK A01 T11031138  RH  075%=      5-min Rain = 0
KUM1 111001Z 35008KT M10/M14 A3005 RMK A01 T11031138  RH  075%=      5-min Rain = 0
KUM1 111002Z 35008KT M10/M14 A3005 RMK A01 T11031138  RH  075%=      5-min Rain = 0
KUM1 111003Z 35007KT M10/M14 A3005 RMK A01 T11031138  RH  075%=      5-min Rain = 0
KUM1 111004Z 35007KT M10/M14 A3005 RMK A01 T11021138  RH  075%=      5-min Rain = 0
KUM1 111005Z 35007KT M10/M14 A3005 RMK A01 T11031138  RH  075%=      5-min Rain = 0
KUM1 111006Z 35007KT M10/M14 A3005 RMK A01 T11021138  RH  075%=      5-min Rain = 0
KUM1 111007Z 36007KT M10/M14 A3005 RMK A01 T11021138  RH  075%=      5-min Rain = 0
KUM1 111008Z 36007KT M10/M14 A3005 RMK A01 T11021138  RH  075%=      5-min Rain = 0
KUM1 111009Z 35007KT M10/M14 A3005 RMK A01 T11021138  RH  075%=      5-min Rain = 0
KUM1 111010Z 36006KT M10/M14 A3005 RMK A01 T11021138  RH  075%=      5-min Rain = 0
KUM1 111011Z 36007KT M10/M14 A3005 RMK A01 T11011137  RH  075%=      5-min Rain = 0
KUM1 111012Z 35008KT M10/M14 A3005 RMK A01 T11011138  RH  075%=      5-min Rain = 0
KUM1 111013Z 35008KT M10/M14 A3005 RMK A01 T11011138  RH  074%=      5-min Rain = 0
KUM1 111014Z 35009KT M10/M14 A3005 RMK A01 T11011138  RH  074%=      5-min Rain = 0
KUM1 111015Z 35009KT M10/M14 A3005 RMK A01 T11011138  RH  074%=      5-min Rain = 0
KUM1 111016Z 35008KT M10/M14 A3005 RMK A01 T11011138  RH  074%=      5-min Rain = 0
KUM1 111017Z 35008KT M10/M14 A3005 RMK A01 T11011139  RH  074%=      5-min Rain = 0
KUM1 111018Z 36008KT M10/M14 A3006 RMK A01 T11001138  RH  074%=      5-min Rain = 0
KUM1 111019Z 35008KT M10/M14 A3006 RMK A01 T11001138  RH  074%=      5-min Rain = 0
KUM1 111020Z 35008KT M10/M14 A3006 RMK A01 T11001138  RH  074%=      5-min Rain = 0
KUM1 111021Z 34008KT M10/M14 A3006 RMK A01 T11001138  RH  074%=      5-min Rain = 0
KUM1 111022Z 35007KT M10/M14 A3006 RMK A01 T11001138  RH  074%=      5-min Rain = 0
KUM1 111023Z 35009KT M10/M14 A3006 RMK A01 T11001138  RH  074%=      5-min Rain = 0
KUM1 111024Z 35009KT M10/M14 A3006 RMK A01 T11001138  RH  074%=      5-min Rain = 0
KUM1 111025Z 36009KT M10/M14 A3006 RMK A01 T11001138  RH  074%=      5-min Rain = 0
KUM1 111026Z 36009KT M10/M14 A3006 RMK A01 T10991138  RH  073%=      5-min Rain = 0
KUM1 111027Z 36009KT M10/M14 A3005 RMK A01 T10991138  RH  073%=      5-min Rain = 0
KUM1 111028Z 00009KT M10/M14 A3005 RMK A01 T11001139  RH  073%=      5-min Rain = 0
KUM1 111029Z 35010KT M10/M14 A3006 RMK A01 T10991139  RH  073%=      5-min Rain = 0
KUM1 111030Z 35011KT M10/M14 A3006 RMK A01 T10991139  RH  073%=      5-min Rain = 0
KUM1 111031Z 35010KT M10/M14 A3006 RMK A01 T10991139  RH  073%=      5-min Rain = 0
KUM1 111032Z 35010KT M10/M14 A3006 RMK A01 T11001139  RH  073%=      5-min Rain = 0
KUM1 111033Z 35010KT M10/M14 A3006 RMK A01 T10991139  RH  073%=      5-min Rain = 0
KUM1 111034Z 36008KT M10/M14 A3006 RMK A01 T10991139  RH  073%=      5-min Rain = 0
KUM1 111035Z 35008KT M10/M14 A3006 RMK A01 T10991139  RH  073%=      5-min Rain = 0
KUM1 111036Z 35008KT M10/M14 A3006 RMK A01 T10991139  RH  073%=      5-min Rain = 0
KUM1 111037Z 36008KT M10/M14 A3006 RMK A01 T10981138  RH  073%=      5-min Rain = 0
KUM1 111038Z 35007KT M10/M14 A3006 RMK A01 T10991139  RH  073%=      5-min Rain = 0
KUM1 111039Z 35008KT M10/M14 A3006 RMK A01 T10991139  RH  072%=      5-min Rain = 0
KUM1 111040Z 35008KT M10/M14 A3007 RMK A01 T10981139  RH  072%=      5-min Rain = 0
KUM1 111041Z 35008KT M10/M14 A3007 RMK A01 T10991139  RH  072%=      5-min Rain = 0
KUM1 111042Z 35008KT M10/M14 A3007 RMK A01 T10991139  RH  072%=      5-min Rain = 0
KUM1 111043Z 35009KT M10/M14 A3007 RMK A01 T10991139  RH  072%=      5-min Rain = 0
KUM1 111044Z 35008KT M10/M14 A3007 RMK A01 T10991139  RH  072%=      5-min Rain = 0
KUM1 111045Z 35008KT M10/M14 A3007 RMK A01 T10991140  RH  072%=      5-min Rain = 0
KUM1 111046Z 35008KT M10/M14 A3006 RMK A01 T10991140  RH  072%=      5-min Rain = 0
KUM1 111047Z 35008KT M10/M14 A3006 RMK A01 T10991139  RH  073%=      5-min Rain = 0
KUM1 111048Z 36009KT M10/M14 A3006 RMK A01 T11001140  RH  073%=      5-min Rain = 0
KUM1 111049Z 36008KT M10/M14 A3006 RMK A01 T11001140  RH  073%=      5-min Rain = 0
KUM1 111050Z 35008KT M10/M14 A3007 RMK A01 T11001140  RH  073%=      5-min Rain = 0
KUM1 111051Z 35007KT M10/M14 A3007 RMK A01 T11001140  RH  073%=      5-min Rain = 0
KUM1 111052Z 35008KT M10/M14 A3007 RMK A01 T11001140  RH  073%=      5-min Rain = 0
KUM1 111053Z 35007KT M10/M14 A3007 RMK A01 T11011140  RH  073%=      5-min Rain = 0
KUM1 111054Z 34005KT M10/M14 A3007 RMK A01 T11001139  RH  073%=      5-min Rain = 0
KUM1 111055Z 35005KT M10/M14 A3007 RMK A01 T11001139  RH  073%=      5-min Rain = 0
KUM1 111056Z 34005KT M10/M14 A3007 RMK A01 T11001139  RH  073%=      5-min Rain = 0
KUM1 111057Z 34004KT M10/M14 A3007 RMK A01 T11001139  RH  073%=      5-min Rain = 0
KUM1 111058Z 34005KT M10/M14 A3007 RMK A01 T11001139  RH  073%=      5-min Rain = 0
KUM1 111059Z 34005KT M10/M14 A3007 RMK A01 T11001139  RH  073%=      5-min Rain = 0
KUM1 111100Z 34005KT M10/M14 A3007 RMK A01 T11001139  RH  073%=      5-min Rain = 0
KUM1 111101Z 34006KT M10/M14 A3007 RMK A01 T11001139  RH  073%=      5-min Rain = 0
KUM1 111102Z 34006KT M10/M14 A3007 RMK A01 T11001138  RH  074%=      5-min Rain = 0
KUM1 111103Z 34006KT M10/M14 A3007 RMK A01 T11001139  RH  074%=      5-min Rain = 0
KUM1 111104Z 34006KT M10/M14 A3007 RMK A01 T11001138  RH  074%=      5-min Rain = 0
KUM1 111105Z 34006KT M10/M14 A3007 RMK A01 T11001138  RH  074%=      5-min Rain = 0
KUM1 111106Z 34006KT M10/M14 A3007 RMK A01 T11001138  RH  074%=      5-min Rain = 0
KUM1 111107Z 34007KT M10/M14 A3007 RMK A01 T11001138  RH  074%=      5-min Rain = 0
KUM1 111108Z 34007KT M10/M14 A3007 RMK A01 T11001138  RH  074%=      5-min Rain = 0
KUM1 111109Z 35006KT M10/M14 A3006 RMK A01 T11001138  RH  074%=      5-min Rain = 0
KUM1 111110Z 35007KT M10/M14 A3006 RMK A01 T11001138  RH  074%=      5-min Rain = 0
KUM1 111111Z 35007KT M10/M14 A3006 RMK A01 T11001138  RH  074%=      5-min Rain = 0
KUM1 111112Z 35007KT M10/M14 A3006 RMK A01 T11001138  RH  074%=      5-min Rain = 0
KUM1 111113Z 36006KT M10/M14 A3006 RMK A01 T11001138  RH  074%=      5-min Rain = 0
KUM1 111114Z 35007KT M10/M14 A3006 RMK A01 T11001138  RH  074%=      5-min Rain = 0
KUM1 111115Z 35007KT M10/M14 A3006 RMK A01 T11001138  RH  074%=      5-min Rain = 0
KUM1 111116Z 35006KT M10/M14 A3006 RMK A01 T10991138  RH  074%=      5-min Rain = 0
KUM1 111117Z 35007KT M10/M14 A3006 RMK A01 T10991137  RH  074%=      5-min Rain = 0
KUM1 111118Z 34007KT M10/M14 A3006 RMK A01 T10991138  RH  073%=      5-min Rain = 0
KUM1 111119Z 34007KT M10/M14 A3006 RMK A01 T10991138  RH  073%=      5-min Rain = 0
KUM1 111120Z 34008KT M10/M14 A3006 RMK A01 T10991137  RH  073%=      5-min Rain = 0
KUM1 111121Z 34009KT M10/M14 A3006 RMK A01 T10991138  RH  073%=      5-min Rain = 0
KUM1 111122Z 34009KT M10/M14 A3006 RMK A01 T10991138  RH  073%=      5-min Rain = 0
KUM1 111123Z 35008KT M10/M14 A3006 RMK A01 T10991137  RH  073%=      5-min Rain = 0
KUM1 111124Z 34007KT M10/M14 A3006 RMK A01 T10981137  RH  073%=      5-min Rain = 0
KUM1 111125Z 34010KT M10/M14 A3006 RMK A01 T10981137  RH  073%=      5-min Rain = 0
KUM1 111126Z 35008KT M10/M14 A3006 RMK A01 T10981138  RH  073%=      5-min Rain = 0
KUM1 111127Z 35008KT M10/M14 A3006 RMK A01 T10981137  RH  073%=      5-min Rain = 0
KUM1 111128Z 34008KT M10/M14 A3006 RMK A01 T10981137  RH  073%=      5-min Rain = 0
KUM1 111129Z 34008KT M10/M14 A3006 RMK A01 T10981137  RH  073%=      5-min Rain = 0
KUM1 111130Z 35008KT M10/M14 A3007 RMK A01 T10981138  RH  073%=      5-min Rain = 0
KUM1 111131Z 34009KT M10/M14 A3007 RMK A01 T10981138  RH  073%=      5-min Rain = 0
KUM1 111132Z 34008KT M10/M14 A3007 RMK A01 T10971137  RH  073%=      5-min Rain = 0
KUM1 111133Z 34008KT M10/M14 A3007 RMK A01 T10981137  RH  073%=      5-min Rain = 0
KUM1 111134Z 34007KT M10/M14 A3007 RMK A01 T10971137  RH  073%=      5-min Rain = 0
KUM1 111135Z 35007KT M10/M14 A3007 RMK A01 T10971137  RH  073%=      5-min Rain = 0
KUM1 111136Z 35008KT M10/M14 A3007 RMK A01 T10971137  RH  073%=      5-min Rain = 0
KUM1 111137Z 35008KT M10/M14 A3007 RMK A01 T10971137  RH  073%=      5-min Rain = 0
KUM1 111138Z 34008KT M10/M14 A3007 RMK A01 T10971137  RH  073%=      5-min Rain = 0
KUM1 111139Z 34009KT M10/M14 A3007 RMK A01 T10961137  RH  072%=      5-min Rain = 0
KUM1 111140Z 35009KT M10/M14 A3007 RMK A01 T10971137  RH  072%=      5-min Rain = 0
KUM1 111141Z 35009KT M10/M14 A3007 RMK A01 T10971137  RH  072%=      5-min Rain = 0
KUM1 111142Z 34009KT M10/M14 A3007 RMK A01 T10971137  RH  072%=      5-min Rain = 0
KUM1 111143Z 35008KT M10/M14 A3007 RMK A01 T10971137  RH  072%=      5-min Rain = 0
KUM1 111144Z 34008KT M10/M14 A3007 RMK A01 T10961137  RH  072%=      5-min Rain = 0
KUM1 111145Z 34009KT M10/M14 A3007 RMK A01 T10961137  RH  072%=      5-min Rain = 0
KUM1 111146Z 34009KT M10/M14 A3007 RMK A01 T10961137  RH  072%=      5-min Rain = 0
KUM1 111147Z 34008KT M10/M14 A3008 RMK A01 T10961137  RH  072%=      5-min Rain = 0
KUM1 111148Z 34006KT M10/M14 A3008 RMK A01 T10961137  RH  072%=      5-min Rain = 0
KUM1 111149Z 34008KT M10/M14 A3008 RMK A01 T10961137  RH  072%=      5-min Rain = 0
KUM1 111150Z 34007KT M10/M14 A3008 RMK A01 T10961137  RH  072%=      5-min Rain = 0
KUM1 111151Z 34007KT M10/M14 A3008 RMK A01 T10961137  RH  072%=      5-min Rain = 0
KUM1 111152Z 35005KT M10/M14 A3008 RMK A01 T10961137  RH  072%=      5-min Rain = 0
KUM1 111153Z 35004KT M10/M14 A3008 RMK A01 T10961137  RH  072%=      5-min Rain = 0
KUM1 111154Z 34006KT M10/M14 A3008 RMK A01 T10961137  RH  072%=      5-min Rain = 0
KUM1 111155Z 33006KT M10/M14 A3008 RMK A01 T10961137  RH  072%=      5-min Rain = 0
KUM1 111156Z 33007KT M10/M14 A3008 RMK A01 T10961137  RH  072%=      5-min Rain = 0
KUM1 111157Z 34006KT M10/M14 A3008 RMK A01 T10961137  RH  072%=      5-min Rain = 0
KUM1 111158Z 34005KT M10/M14 A3008 RMK A01 T10951136  RH  072%=      5-min Rain = 0
KUM1 111159Z 35006KT M10/M14 A3008 RMK A01 T10951136  RH  072%=      5-min Rain = 0
KUM1 111200Z 35007KT M10/M14 A3008 RMK A01 T10951136  RH  072%=      5-min Rain = 0
KUM1 111201Z 35006KT M10/M14 A3008 RMK A01 T10951136  RH  072%=      5-min Rain = 0
KUM1 111202Z 34007KT M10/M14 A3009 RMK A01 T10951136  RH  072%=      5-min Rain = 0
KUM1 111203Z 34006KT M10/M14 A3009 RMK A01 T10951136  RH  072%=      5-min Rain = 0
KUM1 111204Z 33006KT M10/M14 A3009 RMK A01 T10951136  RH  072%=      5-min Rain = 0
KUM1 111205Z 33005KT M10/M14 A3009 RMK A01 T10951136  RH  072%=      5-min Rain = 0
KUM1 111206Z 34005KT M09/M14 A3009 RMK A01 T10941136  RH  072%=      5-min Rain = 0
KUM1 111207Z 33005KT M09/M14 A3009 RMK A01 T10941136  RH  072%=      5-min Rain = 0
KUM1 111208Z 33004KT M09/M14 A3009 RMK A01 T10941136  RH  071%=      5-min Rain = 0
KUM1 111209Z 33005KT M09/M14 A3009 RMK A01 T10941136  RH  071%=      5-min Rain = 0
KUM1 111210Z 33006KT M09/M14 A3009 RMK A01 T10941136  RH  071%=      5-min Rain = 0
KUM1 111211Z 34006KT M09/M14 A3009 RMK A01 T10941136  RH  071%=      5-min Rain = 0
KUM1 111212Z 34006KT M09/M14 A3009 RMK A01 T10941136  RH  071%=      5-min Rain = 0
KUM1 111213Z 33006KT M09/M14 A301 RMK A01 T10941136  RH  071%=      5-min Rain = 0
KUM1 111214Z 33006KT M09/M14 A301 RMK A01 T10941136  RH  071%=      5-min Rain = 0
KUM1 111215Z 33006KT M09/M14 A301 RMK A01 T10941136  RH  071%=      5-min Rain = 0
KUM1 111216Z 33008KT M09/M14 A301 RMK A01 T10931136  RH  071%=      5-min Rain = 0
KUM1 111217Z 34006KT M09/M14 A301 RMK A01 T10931136  RH  071%=      5-min Rain = 0
KUM1 111218Z 34005KT M09/M14 A301 RMK A01 T10941136  RH  071%=      5-min Rain = 0
KUM1 111219Z 35005KT M09/M14 A301 RMK A01 T10931136  RH  071%=      5-min Rain = 0
KUM1 111220Z 34004KT M09/M14 A301 RMK A01 T10931136  RH  071%=      5-min Rain = 0
KUM1 111221Z 32005KT M09/M14 A301 RMK A01 T10931136  RH  071%=      5-min Rain = 0
KUM1 111222Z 32006KT M09/M14 A301 RMK A01 T10931136  RH  071%=      5-min Rain = 0
KUM1 111223Z 32006KT M09/M14 A301 RMK A01 T10921136  RH  071%=      5-min Rain = 0
KUM1 111224Z 33005KT M09/M14 A3011 RMK A01 T10921136  RH  071%=      5-min Rain = 0
KUM1 111225Z 33006KT M09/M14 A3011 RMK A01 T10931136  RH  071%=      5-min Rain = 0
KUM1 111226Z 33005KT M09/M14 A3011 RMK A01 T10931136  RH  071%=      5-min Rain = 0
KUM1 111227Z 32006KT M09/M14 A3011 RMK A01 T10921135  RH  071%=      5-min Rain = 0
KUM1 111228Z 32006KT M09/M14 A3011 RMK A01 T10921135  RH  071%=      5-min Rain = 0
KUM1 111229Z 32005KT M09/M14 A3011 RMK A01 T10921135  RH  071%=      5-min Rain = 0
KUM1 111230Z 32007KT M09/M14 A3011 RMK A01 T10911135  RH  071%=      5-min Rain = 0
KUM1 111231Z 32006KT M09/M14 A3011 RMK A01 T10911135  RH  071%=      5-min Rain = 0
KUM1 111232Z 32007KT M09/M14 A3011 RMK A01 T10911135  RH  071%=      5-min Rain = 0
KUM1 111233Z 32007KT M09/M14 A3011 RMK A01 T10911135  RH  071%=      5-min Rain = 0
KUM1 111234Z 32007KT M09/M14 A3011 RMK A01 T10911135  RH  071%=      5-min Rain = 0
KUM1 111235Z 32006KT M09/M14 A3011 RMK A01 T10911135  RH  071%=      5-min Rain = 0
KUM1 111236Z 32007KT M09/M14 A3011 RMK A01 T10911135  RH  071%=      5-min Rain = 0
KUM1 111237Z 32007KT M09/M14 A3011 RMK A01 T10911135  RH  071%=      5-min Rain = 0
KUM1 111238Z 31007KT M09/M14 A3011 RMK A01 T10921135  RH  071%=      5-min Rain = 0
KUM1 111239Z 31007KT M09/M14 A3011 RMK A01 T10921135  RH  071%=      5-min Rain = 0
KUM1 111240Z 31007KT M09/M14 A3011 RMK A01 T10921135  RH  071%=      5-min Rain = 0
KUM1 111241Z 31005KT M09/M13 A3011 RMK A01 T10911134  RH  071%=      5-min Rain = 0
KUM1 111242Z 31006KT M09/M13 A3011 RMK A01 T10911134  RH  071%=      5-min Rain = 0
KUM1 111243Z 31007KT M09/M13 A3011 RMK A01 T10911134  RH  071%=      5-min Rain = 0
KUM1 111244Z 31006KT M09/M13 A3011 RMK A01 T10911134  RH  071%=      5-min Rain = 0
KUM1 111245Z 32006KT M09/M13 A3011 RMK A01 T10911133  RH  071%=      5-min Rain = 0
KUM1 111246Z 32007KT M09/M13 A3011 RMK A01 T10911133  RH  071%=      5-min Rain = 0
KUM1 111247Z 32007KT M09/M13 A3011 RMK A01 T10911134  RH  071%=      5-min Rain = 0
KUM1 111248Z 32008KT M09/M13 A3011 RMK A01 T10911134  RH  071%=      5-min Rain = 0
KUM1 111249Z 32008KT M09/M13 A3012 RMK A01 T10901133  RH  071%=      5-min Rain = 0
KUM1 111250Z 32007KT M09/M13 A3012 RMK A01 T10891133  RH  071%=      5-min Rain = 0
KUM1 111251Z 31007KT M09/M13 A3012 RMK A01 T10891133  RH  070%=      5-min Rain = 0
KUM1 111252Z 32006KT M09/M13 A3012 RMK A01 T10891133  RH  070%=      5-min Rain = 0
KUM1 111253Z 32008KT M09/M13 A3012 RMK A01 T10891133  RH  070%=      5-min Rain = 0
KUM1 111254Z 32007KT M09/M13 A3012 RMK A01 T10891133  RH  070%=      5-min Rain = 0
KUM1 111255Z 31006KT M09/M13 A3012 RMK A01 T10891134  RH  070%=      5-min Rain = 0
KUM1 111256Z 32006KT M09/M13 A3011 RMK A01 T10891134  RH  070%=      5-min Rain = 0
KUM1 111257Z 32007KT M09/M13 A3012 RMK A01 T10891134  RH  070%=      5-min Rain = 0
KUM1 111258Z 31007KT M09/M13 A3012 RMK A01 T10891133  RH  070%=      5-min Rain = 0
KUM1 111259Z 31007KT M09/M13 A3012 RMK A01 T10891134  RH  070%=      5-min Rain = 0
KUM1 111300Z 31007KT M09/M13 A3012 RMK A01 T10891134  RH  070%=      5-min Rain = 0
KUM1 111301Z 31007KT M09/M13 A3012 RMK A01 T10891133  RH  070%=      5-min Rain = 0
KUM1 111302Z 31007KT M09/M13 A3012 RMK A01 T10891133  RH  070%=      5-min Rain = 0
KUM1 111303Z 31007KT M09/M13 A3012 RMK A01 T10881133  RH  070%=      5-min Rain = 0
KUM1 111304Z 32008KT M09/M13 A3012 RMK A01 T10881133  RH  070%=      5-min Rain = 0
KUM1 111305Z 32007KT M09/M13 A3012 RMK A01 T10881133  RH  070%=      5-min Rain = 0
KUM1 111306Z 32008KT M09/M13 A3012 RMK A01 T10881133  RH  070%=      5-min Rain = 0
KUM1 111307Z 32008KT M09/M13 A3012 RMK A01 T10881133  RH  070%=      5-min Rain = 0
KUM1 111308Z 32008KT M09/M13 A3012 RMK A01 T10881133  RH  070%=      5-min Rain = 0
KUM1 111309Z 32009KT M09/M13 A3012 RMK A01 T10871133  RH  070%=      5-min Rain = 0
KUM1 111310Z 32009KT M09/M13 A3012 RMK A01 T10871133  RH  069%=      5-min Rain = 0
KUM1 111311Z 32008KT M09/M13 A3012 RMK A01 T10871133  RH  069%=      5-min Rain = 0
KUM1 111312Z 32007KT M09/M13 A3012 RMK A01 T10861133  RH  069%=      5-min Rain = 0
KUM1 111313Z 32008KT M09/M13 A3012 RMK A01 T10861132  RH  069%=      5-min Rain = 0
KUM1 111314Z 32008KT M09/M13 A3012 RMK A01 T10861133  RH  069%=      5-min Rain = 0
KUM1 111315Z 32007KT M09/M13 A3012 RMK A01 T10861132  RH  069%=      5-min Rain = 0
KUM1 111316Z 32007KT M09/M13 A3012 RMK A01 T10851132  RH  069%=      5-min Rain = 0
KUM1 111317Z 32007KT M09/M13 A3012 RMK A01 T10851132  RH  069%=      5-min Rain = 0
KUM1 111318Z 31008KT M09/M13 A3012 RMK A01 T10851132  RH  069%=      5-min Rain = 0
KUM1 111319Z 31007KT M09/M13 A3012 RMK A01 T10851132  RH  069%=      5-min Rain = 0
KUM1 111320Z 32007KT M09/M13 A3012 RMK A01 T10851132  RH  069%=      5-min Rain = 0
KUM1 111321Z 32008KT M09/M13 A3012 RMK A01 T10851132  RH  069%=      5-min Rain = 0
KUM1 111322Z 32008KT M09/M13 A3012 RMK A01 T10851132  RH  069%=      5-min Rain = 0
KUM1 111323Z 32008KT M09/M13 A3012 RMK A01 T10851132  RH  069%=      5-min Rain = 0
KUM1 111324Z 32008KT M09/M13 A3012 RMK A01 T10851132  RH  069%=      5-min Rain = 0
KUM1 111325Z 31008KT M08/M13 A3012 RMK A01 T10841131  RH  069%=      5-min Rain = 0
KUM1 111326Z 32009KT M08/M13 A3012 RMK A01 T10841131  RH  069%=      5-min Rain = 0
KUM1 111327Z 32008KT M08/M13 A3012 RMK A01 T10841131  RH  069%=      5-min Rain = 0
KUM1 111328Z 31007KT M08/M13 A3012 RMK A01 T10841131  RH  069%=      5-min Rain = 0
KUM1 111329Z 31009KT M08/M13 A3012 RMK A01 T10831131  RH  069%=      5-min Rain = 0
KUM1 111330Z 31008KT M08/M13 A3012 RMK A01 T10831131  RH  069%=      5-min Rain = 0
KUM1 111331Z 32008KT M08/M13 A3012 RMK A01 T10831130  RH  069%=      5-min Rain = 0
KUM1 111332Z 32007KT M08/M13 A3012 RMK A01 T10831130  RH  069%=      5-min Rain = 0
KUM1 111333Z 32006KT M08/M13 A3013 RMK A01 T10821130  RH  069%=      5-min Rain = 0
KUM1 111334Z 32007KT M08/M13 A3012 RMK A01 T10821129  RH  069%=      5-min Rain = 0
KUM1 111335Z 32007KT M08/M13 A3012 RMK A01 T10811128  RH  069%=      5-min Rain = 0
KUM1 111336Z 32009KT M08/M13 A3012 RMK A01 T10811128  RH  069%=      5-min Rain = 0
KUM1 111337Z 32011KT M08/M13 A3012 RMK A01 T10811128  RH  068%=      5-min Rain = 0
KUM1 111338Z 32010KT M08/M13 A3012 RMK A01 T10811128  RH  068%=      5-min Rain = 0
KUM1 111339Z 33009KT M08/M13 A3012 RMK A01 T10811128  RH  068%=      5-min Rain = 0
KUM1 111340Z 32010KT M08/M13 A3012 RMK A01 T10801128  RH  068%=      5-min Rain = 0
KUM1 111341Z 32009KT M08/M13 A3012 RMK A01 T10801128  RH  068%=      5-min Rain = 0
KUM1 111342Z 32010KT M08/M13 A3012 RMK A01 T10801128  RH  068%=      5-min Rain = 0
KUM1 111343Z 32011KT M08/M13 A3012 RMK A01 T10791127  RH  068%=      5-min Rain = 0
KUM1 111344Z 32011KT M08/M13 A3012 RMK A01 T10791127  RH  068%=      5-min Rain = 0
KUM1 111345Z 32010KT M08/M13 A3012 RMK A01 T10791127  RH  068%=      5-min Rain = 0
KUM1 111346Z 33012KT M08/M13 A3012 RMK A01 T10781127  RH  068%=      5-min Rain = 0
KUM1 111347Z 33011KT M08/M13 A3012 RMK A01 T10781127  RH  068%=      5-min Rain = 0
KUM1 111348Z 33012KT M08/M13 A3012 RMK A01 T10791127  RH  068%=      5-min Rain = 0
KUM1 111349Z 33010KT M08/M13 A3012 RMK A01 T10781126  RH  068%=      5-min Rain = 0
KUM1 111350Z 33010KT M08/M13 A3012 RMK A01 T10781126  RH  068%=      5-min Rain = 0
KUM1 111351Z 33011KT M08/M13 A3012 RMK A01 T10771125  RH  068%=      5-min Rain = 0
KUM1 111352Z 33011KT M08/M13 A3012 RMK A01 T10771125  RH  068%=      5-min Rain = 0
KUM1 111353Z 33011KT M08/M13 A3012 RMK A01 T10771125  RH  068%=      5-min Rain = 0
KUM1 111354Z 33010KT M08/M13 A3013 RMK A01 T10771125  RH  068%=      5-min Rain = 0
KUM1 111355Z 32010KT M08/M12 A3013 RMK A01 T10761124  RH  068%=      5-min Rain = 0
KUM1 111356Z 32010KT M08/M13 A3013 RMK A01 T10761125  RH  068%=      5-min Rain = 0
KUM1 111357Z 33009KT M08/M13 A3013 RMK A01 T10761125  RH  068%=      5-min Rain = 0
KUM1 111358Z 33011KT M08/M13 A3013 RMK A01 T10761125  RH  068%=      5-min Rain = 0
KUM1 111359Z 33012KT M08/M13 A3013 RMK A01 T10761125  RH  068%=      5-min Rain = 0
KUM1 111400Z 32012KT M08/M13 A3013 RMK A01 T10761126  RH  068%=      5-min Rain = 0
KUM1 111401Z 33011KT M08/M13 A3013 RMK A01 T10761125  RH  068%=      5-min Rain = 0
KUM1 111402Z 33010KT M08/M13 A3013 RMK A01 T10751125  RH  068%=      5-min Rain = 0
KUM1 111403Z 33011KT M08/M13 A3013 RMK A01 T10761125  RH  068%=      5-min Rain = 0
KUM1 111404Z 33011KT M08/M13 A3013 RMK A01 T10751125  RH  068%=      5-min Rain = 0
KUM1 111405Z 33011KT M08/M12 A3013 RMK A01 T10751124  RH  068%=      5-min Rain = 0
KUM1 111406Z 32012KT M07/M12 A3013 RMK A01 T10741124  RH  068%=      5-min Rain = 0
KUM1 111407Z 32013KT M07/M12 A3013 RMK A01 T10741124  RH  068%=      5-min Rain = 0
KUM1 111408Z 32011KT M07/M12 A3013 RMK A01 T10741124  RH  068%=      5-min Rain = 0
KUM1 111409Z 32014KT M07/M12 A3014 RMK A01 T10741124  RH  068%=      5-min Rain = 0
KUM1 111410Z 32014KT M07/M12 A3013 RMK A01 T10741124  RH  067%=      5-min Rain = 0
KUM1 111411Z 33014KT M07/M12 A3013 RMK A01 T10741124  RH  067%=      5-min Rain = 0
KUM1 111412Z 33011KT M07/M12 A3013 RMK A01 T10741124  RH  067%=      5-min Rain = 0
KUM1 111413Z 33012KT M07/M12 A3013 RMK A01 T10741124  RH  067%=      5-min Rain = 0
KUM1 111414Z 33013KT M07/M12 A3013 RMK A01 T10741124  RH  067%=      5-min Rain = 0
KUM1 111415Z 33012KT M07/M12 A3014 RMK A01 T10741123  RH  068%=      5-min Rain = 0
KUM1 111416Z 33012KT M07/M12 A3014 RMK A01 T10731123  RH  068%=      5-min Rain = 0
KUM1 111417Z 32013KT M07/M12 A3014 RMK A01 T10731123  RH  068%=      5-min Rain = 0
KUM1 111418Z 32011KT M07/M12 A3014 RMK A01 T10731123  RH  067%=      5-min Rain = 0
KUM1 111419Z 32011KT M07/M12 A3014 RMK A01 T10731123  RH  067%=      5-min Rain = 0
KUM1 111420Z 32013KT M07/M12 A3014 RMK A01 T10721122  RH  067%=      5-min Rain = 0
KUM1 111421Z 33012KT M07/M12 A3014 RMK A01 T10721122  RH  067%=      5-min Rain = 0
KUM1 111422Z 33014KT M07/M12 A3014 RMK A01 T10721122  RH  067%=      5-min Rain = 0
KUM1 111423Z 33012KT M07/M12 A3014 RMK A01 T10721122  RH  067%=      5-min Rain = 0
KUM1 111424Z 32011KT M07/M12 A3014 RMK A01 T10711122  RH  067%=      5-min Rain = 0
KUM1 111425Z 32011KT M07/M12 A3014 RMK A01 T10711121  RH  068%=      5-min Rain = 0
KUM1 111426Z 32011KT M07/M12 A3014 RMK A01 T10711121  RH  068%=      5-min Rain = 0
KUM1 111427Z 32010KT M07/M12 A3014 RMK A01 T10711121  RH  068%=      5-min Rain = 0
KUM1 111428Z 32010KT M07/M12 A3014 RMK A01 T10701121  RH  067%=      5-min Rain = 0
KUM1 111429Z 32010KT M07/M12 A3014 RMK A01 T10701120  RH  067%=      5-min Rain = 0
KUM1 111430Z 32009KT M07/M12 A3014 RMK A01 T10701120  RH  067%=      5-min Rain = 0
KUM1 111431Z 33011KT M07/M12 A3014 RMK A01 T10691120  RH  067%=      5-min Rain = 0
KUM1 111432Z 32011KT M07/M12 A3014 RMK A01 T10691120  RH  067%=      5-min Rain = 0
KUM1 111433Z 32009KT M07/M12 A3014 RMK A01 T10691120  RH  067%=      5-min Rain = 0
KUM1 111434Z 32009KT M07/M12 A3015 RMK A01 T10691120  RH  067%=      5-min Rain = 0
KUM1 111435Z 31009KT M07/M12 A3015 RMK A01 T10691120  RH  067%=      5-min Rain = 0
KUM1 111436Z 32011KT M07/M12 A3015 RMK A01 T10681119  RH  067%=      5-min Rain = 0
KUM1 111437Z 32009KT M07/M12 A3015 RMK A01 T10681119  RH  067%=      5-min Rain = 0
KUM1 111438Z 32010KT M07/M12 A3015 RMK A01 T10681119  RH  067%=      5-min Rain = 0
KUM1 111439Z 32008KT M07/M12 A3015 RMK A01 T10681119  RH  067%=      5-min Rain = 0
KUM1 111440Z 32008KT M07/M12 A3015 RMK A01 T10671118  RH  067%=      5-min Rain = 0
KUM1 111441Z 31009KT M07/M12 A3015 RMK A01 T10671118  RH  067%=      5-min Rain = 0
KUM1 111442Z 32010KT M07/M12 A3015 RMK A01 T10671118  RH  067%=      5-min Rain = 0
KUM1 111443Z 32008KT M07/M12 A3015 RMK A01 T10661118  RH  067%=      5-min Rain = 0
KUM1 111444Z 32008KT M07/M12 A3015 RMK A01 T10661117  RH  067%=      5-min Rain = 0
KUM1 111445Z 32011KT M07/M12 A3015 RMK A01 T10661117  RH  067%=      5-min Rain = 0
KUM1 111446Z 32009KT M07/M12 A3015 RMK A01 T10661118  RH  067%=      5-min Rain = 0
KUM1 111447Z 32009KT M07/M12 A3015 RMK A01 T10661117  RH  067%=      5-min Rain = 0
KUM1 111448Z 32009KT M07/M12 A3015 RMK A01 T10661117  RH  067%=      5-min Rain = 0
KUM1 111449Z 31009KT M07/M12 A3015 RMK A01 T10661117  RH  067%=      5-min Rain = 0
KUM1 111450Z 32009KT M07/M12 A3015 RMK A01 T10651117  RH  067%=      5-min Rain = 0
KUM1 111451Z 32009KT M07/M12 A3015 RMK A01 T10651116  RH  067%=      5-min Rain = 0
KUM1 111452Z 32009KT M07/M12 A3015 RMK A01 T10651116  RH  067%=      5-min Rain = 0
KUM1 111453Z 32008KT M07/M12 A3015 RMK A01 T10651116  RH  067%=      5-min Rain = 0
KUM1 111454Z 31008KT M07/M12 A3015 RMK A01 T10651116  RH  067%=      5-min Rain = 0
KUM1 111455Z 31009KT M07/M12 A3015 RMK A01 T10651116  RH  067%=      5-min Rain = 0
KUM1 111456Z 31010KT M06/M12 A3015 RMK A01 T10641116  RH  067%=      5-min Rain = 0
KUM1 111457Z 31010KT M06/M12 A3016 RMK A01 T10641116  RH  067%=      5-min Rain = 0
KUM1 111458Z 32011KT M06/M12 A3016 RMK A01 T10641116  RH  067%=      5-min Rain = 0
KUM1 111459Z 32010KT M06/M12 A3016 RMK A01 T10641116  RH  067%=      5-min Rain = 0
KUM1 111500Z 32010KT M06/M12 A3016 RMK A01 T10631115  RH  067%=      5-min Rain = 0
KUM1 111501Z 31009KT M06/M12 A3016 RMK A01 T10631115  RH  067%=      5-min Rain = 0
KUM1 111502Z 32010KT M06/M11 A3016 RMK A01 T10631114  RH  067%=      5-min Rain = 0
KUM1 111503Z 32010KT M06/M11 A3016 RMK A01 T10621114  RH  067%=      5-min Rain = 0
KUM1 111504Z 32010KT M06/M11 A3016 RMK A01 T10621114  RH  066%=      5-min Rain = 0
KUM1 111505Z 32010KT M06/M11 A3016 RMK A01 T10621114  RH  066%=      5-min Rain = 0
KUM1 111506Z 31009KT M06/M11 A3016 RMK A01 T10611114  RH  066%=      5-min Rain = 0
KUM1 111507Z 31008KT M06/M11 A3016 RMK A01 T10611114  RH  066%=      5-min Rain = 0
KUM1 111508Z 32008KT M06/M11 A3016 RMK A01 T10611114  RH  066%=      5-min Rain = 0
KUM1 111509Z 32009KT M06/M11 A3016 RMK A01 T10591113  RH  066%=      5-min Rain = 0
KUM1 111510Z 31008KT M06/M11 A3016 RMK A01 T10591113  RH  066%=      5-min Rain = 0
KUM1 111511Z 31009KT M06/M11 A3016 RMK A01 T10591113  RH  065%=      5-min Rain = 0
KUM1 111512Z 32009KT M06/M11 A3016 RMK A01 T10591113  RH  065%=      5-min Rain = 0
KUM1 111513Z 31009KT M06/M11 A3016 RMK A01 T10591113  RH  066%=      5-min Rain = 0
KUM1 111514Z 32009KT M06/M11 A3016 RMK A01 T10591113  RH  066%=      5-min Rain = 0
KUM1 111515Z 32009KT M06/M11 A3016 RMK A01 T10581113  RH  066%=      5-min Rain = 0
KUM1 111516Z 32008KT M06/M11 A3016 RMK A01 T10581113  RH  065%=      5-min Rain = 0
KUM1 111517Z 31010KT M06/M11 A3016 RMK A01 T10581113  RH  065%=      5-min Rain = 0
KUM1 111518Z 31009KT M06/M11 A3016 RMK A01 T10581113  RH  065%=      5-min Rain = 0
KUM1 111519Z 31010KT M06/M11 A3017 RMK A01 T10581112  RH  065%=      5-min Rain = 0
KUM1 111520Z 31010KT M06/M11 A3017 RMK A01 T10571112  RH  065%=      5-min Rain = 0
KUM1 111521Z 32010KT M06/M11 A3017 RMK A01 T10571112  RH  065%=      5-min Rain = 0
KUM1 111522Z 31008KT M06/M11 A3017 RMK A01 T10571112  RH  065%=      5-min Rain = 0
KUM1 111523Z 31011KT M06/M11 A3017 RMK A01 T10561111  RH  065%=      5-min Rain = 0
KUM1 111524Z 31010KT M06/M11 A3017 RMK A01 T10561111  RH  065%=      5-min Rain = 0
KUM1 111525Z 32010KT M06/M11 A3017 RMK A01 T10561111  RH  065%=      5-min Rain = 0
KUM1 111526Z 32009KT M06/M11 A3017 RMK A01 T10561111  RH  065%=      5-min Rain = 0
KUM1 111527Z 32011KT M06/M11 A3017 RMK A01 T10561111  RH  065%=      5-min Rain = 0
KUM1 111528Z 31009KT M06/M11 A3017 RMK A01 T10551111  RH  065%=      5-min Rain = 0
KUM1 111529Z 31010KT M05/M11 A3018 RMK A01 T10541109  RH  065%=      5-min Rain = 0
KUM1 111530Z 31009KT M05/M11 A3018 RMK A01 T10541109  RH  065%=      5-min Rain = 0
KUM1 111531Z 31009KT M05/M11 A3018 RMK A01 T10531109  RH  065%=      5-min Rain = 0
KUM1 111532Z 31009KT M05/M11 A3018 RMK A01 T10521109  RH  064%=      5-min Rain = 0
KUM1 111533Z 31010KT M05/M11 A3018 RMK A01 T10521109  RH  064%=      5-min Rain = 0
KUM1 111534Z 31009KT M05/M11 A3018 RMK A01 T10521109  RH  064%=      5-min Rain = 0
KUM1 111535Z 32011KT M05/M11 A3018 RMK A01 T10521109  RH  064%=      5-min Rain = 0
KUM1 111536Z 31010KT M05/M11 A3018 RMK A01 T10511110  RH  064%=      5-min Rain = 0
KUM1 111537Z 31009KT M05/M11 A3018 RMK A01 T10521110  RH  064%=      5-min Rain = 0
KUM1 111538Z 31010KT M05/M11 A3018 RMK A01 T10511109  RH  064%=      5-min Rain = 0
KUM1 111539Z 31009KT M05/M11 A3017 RMK A01 T10511109  RH  064%=      5-min Rain = 0
KUM1 111540Z 31011KT M05/M11 A3017 RMK A01 T10511110  RH  063%=      5-min Rain = 0
KUM1 111541Z 32010KT M05/M11 A3017 RMK A01 T10511110  RH  063%=      5-min Rain = 0
KUM1 111542Z 32011KT M05/M11 A3017 RMK A01 T10511110  RH  063%=      5-min Rain = 0
KUM1 111543Z 31011KT M05/M11 A3017 RMK A01 T10511110  RH  063%=      5-min Rain = 0
KUM1 111544Z 32010KT M05/M11 A3017 RMK A01 T10511109  RH  063%=      5-min Rain = 0
KUM1 111545Z 32010KT M05/M11 A3017 RMK A01 T10501109  RH  063%=      5-min Rain = 0
KUM1 111546Z 32009KT M05/M11 A3017 RMK A01 T10501109  RH  063%=      5-min Rain = 0
KUM1 111547Z 32010KT M05/M11 A3018 RMK A01 T10491108  RH  063%=      5-min Rain = 0
KUM1 111548Z 32011KT M05/M11 A3018 RMK A01 T10481108  RH  063%=      5-min Rain = 0
KUM1 111549Z 32012KT M05/M11 A3018 RMK A01 T10461106  RH  063%=      5-min Rain = 0
KUM1 111550Z 32012KT M05/M11 A3018 RMK A01 T10461107  RH  062%=      5-min Rain = 0
KUM1 111551Z 33011KT M05/M11 A3018 RMK A01 T10451107  RH  062%=      5-min Rain = 0
KUM1 111552Z 32011KT M04/M11 A3018 RMK A01 T10441106  RH  062%=      5-min Rain = 0
KUM1 111553Z 32009KT M04/M11 A3018 RMK A01 T10441107  RH  062%=      5-min Rain = 0
KUM1 111554Z 32009KT M04/M11 A3018 RMK A01 T10421105  RH  061%=      5-min Rain = 0
KUM1 111555Z 33009KT M04/M11 A3018 RMK A01 T10411105  RH  061%=      5-min Rain = 0
KUM1 111556Z 31011KT M04/M10 A3018 RMK A01 T10391104  RH  061%=      5-min Rain = 0
KUM1 111557Z 32011KT M04/M11 A3018 RMK A01 T10401107  RH  060%=      5-min Rain = 0
KUM1 111558Z 33009KT M04/M11 A3018 RMK A01 T10421108  RH  060%=      5-min Rain = 0
KUM1 111559Z 34009KT M04/M11 A3018 RMK A01 T10411106  RH  061%=      5-min Rain = 0
KUM1 111600Z 33008KT M04/M10 A3018 RMK A01 T10391104  RH  061%=      5-min Rain = 0
KUM1 111601Z 33013KT M04/M10 A3018 RMK A01 T10361102  RH  060%=      5-min Rain = 0
KUM1 111602Z 33012KT M04/M10 A3018 RMK A01 T10351103  RH  059%=      5-min Rain = 0
KUM1 111603Z 34011KT M04/M10 A3018 RMK A01 T10351104  RH  059%=      5-min Rain = 0
KUM1 111604Z 33011KT M04/M11 A3018 RMK A01 T10361106  RH  058%=      5-min Rain = 0
KUM1 111605Z 33012KT M04/M11 A3018 RMK A01 T10371106  RH  059%=      5-min Rain = 0
KUM1 111606Z 33011KT M04/M11 A3018 RMK A01 T10371107  RH  058%=      5-min Rain = 0
KUM1 111607Z 34010KT M04/M11 A3018 RMK A01 T10371107  RH  058%=      5-min Rain = 0
KUM1 111608Z 33010KT M04/M11 A3018 RMK A01 T10351105  RH  058%=      5-min Rain = 0
KUM1 111609Z 34012KT M03/M11 A3018 RMK A01 T10341105  RH  058%=      5-min Rain = 0
KUM1 111610Z 33011KT M03/M11 A3018 RMK A01 T10331105  RH  057%=      5-min Rain = 0
KUM1 111611Z 34013KT M03/M11 A3018 RMK A01 T10321105  RH  057%=      5-min Rain = 0
KUM1 111612Z 34014KT M03/M11 A3018 RMK A01 T10311105  RH  057%=      5-min Rain = 0
KUM1 111613Z 34011KT M03/M11 A3018 RMK A01 T10321106  RH  056%=      5-min Rain = 0
KUM1 111614Z 34014KT M03/M11 A3018 RMK A01 T10311106  RH  056%=      5-min Rain = 0
KUM1 111615Z 33013KT M03/M11 A3018 RMK A01 T10311107  RH  056%=      5-min Rain = 0
KUM1 111616Z 34013KT M03/M11 A3018 RMK A01 T10301106  RH  056%=      5-min Rain = 0
KUM1 111617Z 34014KT M03/M11 A3018 RMK A01 T10301107  RH  055%=      5-min Rain = 0
KUM1 111618Z 34014KT M03/M11 A3018 RMK A01 T10301108  RH  055%=      5-min Rain = 0
KUM1 111619Z 34013KT M03/M11 A3018 RMK A01 T10301108  RH  055%=      5-min Rain = 0
KUM1 111620Z 35012KT M03/M11 A3018 RMK A01 T10291107  RH  055%=      5-min Rain = 0
KUM1 111621Z 34013KT M03/M11 A3018 RMK A01 T10271105  RH  055%=      5-min Rain = 0
KUM1 111622Z 34014KT M03/M11 A3018 RMK A01 T10251105  RH  054%=      5-min Rain = 0
KUM1 111623Z 34014KT M03/M11 A3018 RMK A01 T10251106  RH  054%=      5-min Rain = 0
KUM1 111624Z 35012KT M03/M11 A3018 RMK A01 T10251106  RH  054%=      5-min Rain = 0
KUM1 111625Z 35012KT M02/M11 A3018 RMK A01 T10241106  RH  053%=      5-min Rain = 0
KUM1 111626Z 35012KT M02/M11 A3018 RMK A01 T10241107  RH  053%=      5-min Rain = 0
KUM1 111627Z 35014KT M02/M11 A3018 RMK A01 T10231106  RH  053%=      5-min Rain = 0
KUM1 111628Z 35014KT M02/M11 A3018 RMK A01 T10221108  RH  052%=      5-min Rain = 0
KUM1 111629Z 35014KT M02/M11 A3018 RMK A01 T10201108  RH  051%=      5-min Rain = 0
KUM1 111630Z 00016KT M02/M11 A3018 RMK A01 T10191110  RH  050%=      5-min Rain = 0
KUM1 111631Z 00014KT M02/M11 A3018 RMK A01 T10211113  RH  050%=      5-min Rain = 0
KUM1 111632Z 35014KT M02/M11 A3018 RMK A01 T10201110  RH  050%=      5-min Rain = 0
KUM1 111633Z 35014KT M02/M11 A3018 RMK A01 T10171108  RH  050%=      5-min Rain = 0
KUM1 111634Z 35014G19KT M02/M11 A3018 RMK A01 T10171109  RH  049%=      5-min Rain = 0
KUM1 111635Z 35016KT M02/M11 A3018 RMK A01 T10161110  RH  049%=      5-min Rain = 0
KUM1 111636Z 00015KT M02/M11 A3018 RMK A01 T10171114  RH  048%=      5-min Rain = 0
KUM1 111637Z 36016KT M02/M12 A3018 RMK A01 T10201116  RH  048%=      5-min Rain = 0
KUM1 111638Z 35016KT M02/M12 A3018 RMK A01 T10221116  RH  049%=      5-min Rain = 0
KUM1 111639Z 35016KT M02/M11 A3018 RMK A01 T10211114  RH  049%=      5-min Rain = 0
KUM1 111640Z 35015KT M02/M11 A3018 RMK A01 T10201114  RH  049%=      5-min Rain = 0
KUM1 111641Z 35015KT M02/M11 A3018 RMK A01 T10201113  RH  049%=      5-min Rain = 0
KUM1 111642Z 35013KT M02/M11 A3018 RMK A01 T10191112  RH  049%=      5-min Rain = 0
KUM1 111643Z 36014KT M02/M11 A3018 RMK A01 T10171110  RH  049%=      5-min Rain = 0
KUM1 111644Z 35010KT M02/M11 A3018 RMK A01 T10171110  RH  049%=      5-min Rain = 0
KUM1 111645Z 34013KT M02/M11 A3018 RMK A01 T10151108  RH  049%=      5-min Rain = 0
KUM1 111646Z 35014KT M01/M11 A3018 RMK A01 T10141109  RH  048%=      5-min Rain = 0
KUM1 111647Z 35016KT M01/M11 A3018 RMK A01 T10141111  RH  047%=      5-min Rain = 0
KUM1 111648Z 36011KT M02/M11 A3019 RMK A01 T10151113  RH  047%=      5-min Rain = 0
KUM1 111649Z 35014KT M02/M11 A3018 RMK A01 T10151112  RH  048%=      5-min Rain = 0
KUM1 111650Z 35014G19KT M02/M11 A3018 RMK A01 T10151112  RH  048%=      5-min Rain = 0
KUM1 111651Z 34016KT M02/M11 A3018 RMK A01 T10151114  RH  047%=      5-min Rain = 0
KUM1 111652Z 34014KT M02/M11 A3018 RMK A01 T10171114  RH  047%=      5-min Rain = 0
KUM1 111653Z 34012KT M02/M11 A3018 RMK A01 T10151112  RH  047%=      5-min Rain = 0
KUM1 111654Z 35015KT M01/M11 A3018 RMK A01 T10111109  RH  047%=      5-min Rain = 0
KUM1 111655Z 36013KT M01/M11 A3018 RMK A01 T10111112  RH  046%=      5-min Rain = 0
KUM1 111656Z 34012KT M01/M11 A3018 RMK A01 T10121112  RH  047%=      5-min Rain = 0
KUM1 111657Z 34014KT M01/M11 A3018 RMK A01 T10091108  RH  047%=      5-min Rain = 0
KUM1 111658Z 36013KT M01/M11 A3018 RMK A01 T10081110  RH  046%=      5-min Rain = 0
KUM1 111659Z 35013KT M01/M11 A3018 RMK A01 T10081111  RH  046%=      5-min Rain = 0
KUM1 111700Z 34013KT M01/M11 A3018 RMK A01 T10061109  RH  046%=      5-min Rain = 0
KUM1 111701Z 34010KT M01/M11 A3018 RMK A01 T10051110  RH  045%=      5-min Rain = 0
KUM1 111702Z 35013KT M00/M11 A3018 RMK A01 T10031107  RH  045%=      5-min Rain = 0
KUM1 111703Z 35012KT M00/M11 A3018 RMK A01 T10031111  RH  044%=      5-min Rain = 0
KUM1 111704Z 35013KT M01/M11 A3018 RMK A01 T10071114  RH  044%=      5-min Rain = 0
KUM1 111705Z 34012KT M01/M11 A3018 RMK A01 T10071112  RH  045%=      5-min Rain = 0
KUM1 111706Z 35014KT M01/M11 A3018 RMK A01 T10051110  RH  045%=      5-min Rain = 0
KUM1 111707Z 36013KT M00/M11 A3018 RMK A01 T10041111  RH  044%=      5-min Rain = 0
KUM1 111708Z 36010KT M01/M12 A3018 RMK A01 T10071115  RH  044%=      5-min Rain = 0
KUM1 111709Z 00012KT M01/M11 A3018 RMK A01 T10061112  RH  044%=      5-min Rain = 0
KUM1 111710Z 34013KT M00/M11 A3018 RMK A01 T10031109  RH  045%=      5-min Rain = 0
KUM1 111711Z 34012KT 00/M11 A3018 RMK A01 T00021107  RH  044%=      5-min Rain = 0
KUM1 111712Z 35011KT 00/M11 A3019 RMK A01 T00031109  RH  043%=      5-min Rain = 0
KUM1 111713Z 34012KT 00/M11 A3018 RMK A01 T00011112  RH  043%=      5-min Rain = 0
KUM1 111714Z 35011KT M00/M11 A3018 RMK A01 T10011112  RH  043%=      5-min Rain = 0
KUM1 111715Z 36013KT M00/M11 A3019 RMK A01 T10011111  RH  043%=      5-min Rain = 0
KUM1 111716Z 36014KT M00/M11 A3019 RMK A01 T10011112  RH  043%=      5-min Rain = 0
KUM1 111717Z 35014KT 00/M11 A3019 RMK A01 T00011112  RH  042%=      5-min Rain = 0
KUM1 111718Z 35013KT 00/M11 A3019 RMK A01 T00041109  RH  042%=      5-min Rain = 0
KUM1 111719Z 34011KT 00/M11 A3019 RMK A01 T00021112  RH  042%=      5-min Rain = 0
KUM1 111720Z 35012KT 00/M11 A3019 RMK A01 T00011112  RH  042%=      5-min Rain = 0
KUM1 111721Z 35014KT 00/M11 A3019 RMK A01 T00041111  RH  042%=      5-min Rain = 0
KUM1 111722Z 00012KT 01/M11 A3019 RMK A01 T00061113  RH  040%=      5-min Rain = 0
KUM1 111723Z 00014KT 00/M12 A3019 RMK A01 T00041117  RH  040%=      5-min Rain = 0
KUM1 111724Z 00015KT 00/M12 A3019 RMK A01 T00031118  RH  040%=      5-min Rain = 0
KUM1 111725Z 01012KT 00/M12 A3019 RMK A01 T00031118  RH  040%=      5-min Rain = 0
KUM1 111726Z 01012KT 00/M12 A3018 RMK A01 T00041117  RH  040%=      5-min Rain = 0
KUM1 111727Z 00013KT 00/M12 A3018 RMK A01 T00041115  RH  040%=      5-min Rain = 0
KUM1 111728Z 36011KT 00/M12 A3018 RMK A01 T00021117  RH  040%=      5-min Rain = 0
KUM1 111729Z 35013KT 00/M11 A3018 RMK A01 T00031114  RH  041%=      5-min Rain = 0
KUM1 111730Z 00011KT 00/M12 A3018 RMK A01 T00031115  RH  041%=      5-min Rain = 0
KUM1 111731Z 01012KT 00/M12 A3018 RMK A01 T00021117  RH  041%=      5-min Rain = 0
KUM1 111732Z 01009KT 00/M12 A3018 RMK A01 T00031117  RH  040%=      5-min Rain = 0
KUM1 111733Z 35010KT 00/M12 A3018 RMK A01 T00031116  RH  041%=      5-min Rain = 0
KUM1 111734Z 34011KT 01/M11 A3018 RMK A01 T00091110  RH  040%=      5-min Rain = 0
KUM1 111735Z 35011KT 01/M12 A3018 RMK A01 T00071115  RH  039%=      5-min Rain = 0
KUM1 111736Z 35008KT 01/M12 A3018 RMK A01 T00071115  RH  040%=      5-min Rain = 0
KUM1 111737Z 35012KT 01/M12 A3018 RMK A01 T00051117  RH  039%=      5-min Rain = 0
KUM1 111738Z 34014KT 01/M12 A3018 RMK A01 T00061116  RH  039%=      5-min Rain = 0
KUM1 111739Z 35012KT 01/M12 A3018 RMK A01 T00091116  RH  039%=      5-min Rain = 0
KUM1 111740Z 00012KT 01/M12 A3018 RMK A01 T00111116  RH  038%=      5-min Rain = 0
KUM1 111741Z 01011KT 01/M12 A3018 RMK A01 T00111116  RH  038%=      5-min Rain = 0
KUM1 111742Z 36011KT 01/M12 A3018 RMK A01 T00121115  RH  038%=      5-min Rain = 0
KUM1 111743Z 35011KT 01/M12 A3018 RMK A01 T00121115  RH  038%=      5-min Rain = 0
KUM1 111744Z 01011KT 02/M11 A3018 RMK A01 T00151113  RH  038%=      5-min Rain = 0
KUM1 111745Z 01011KT 02/M11 A3018 RMK A01 T00161114  RH  037%=      5-min Rain = 0
KUM1 111746Z 36011KT 02/M12 A3018 RMK A01 T00161116  RH  037%=      5-min Rain = 0
KUM1 111747Z 36010KT 01/M12 A3018 RMK A01 T00111121  RH  037%=      5-min Rain = 0
KUM1 111748Z 35010KT 01/M12 A3018 RMK A01 T00091122  RH  037%=      5-min Rain = 0
KUM1 111749Z 35010KT 01/M12 A3018 RMK A01 T00111119  RH  037%=      5-min Rain = 0
KUM1 111750Z 01008KT 01/M12 A3017 RMK A01 T00121119  RH  037%=      5-min Rain = 0
KUM1 111751Z 36007G12KT 01/M12 A3017 RMK A01 T00111120  RH  037%=      5-min Rain = 0
KUM1 111752Z 01011KT 01/M12 A3017 RMK A01 T00121115  RH  038%=      5-min Rain = 0
KUM1 111753Z 00010KT 02/M11 A3017 RMK A01 T00161114  RH  037%=      5-min Rain = 0
KUM1 111754Z 35011KT 02/M12 A3017 RMK A01 T00151117  RH  037%=      5-min Rain = 0
KUM1 111755Z 34012KT 01/M12 A3017 RMK A01 T00141120  RH  036%=      5-min Rain = 0
KUM1 111756Z 35010KT 01/M12 A3017 RMK A01 T00141121  RH  036%=      5-min Rain = 0
KUM1 111757Z 36009KT 01/M12 A3017 RMK A01 T00131121  RH  036%=      5-min Rain = 0
KUM1 111758Z 01011KT 01/M12 A3017 RMK A01 T00121121  RH  036%=      5-min Rain = 0
KUM1 111759Z 36012KT 02/M12 A3017 RMK A01 T00151121  RH  036%=      5-min Rain = 0
KUM1 111800Z 35010KT 01/M12 A3017 RMK A01 T00141123  RH  035%=      5-min Rain = 0
KUM1 111801Z 02008KT 01/M12 A3017 RMK A01 T00141121  RH  036%=      5-min Rain = 0
KUM1 111802Z 01011KT 01/M12 A3017 RMK A01 T00131122  RH  036%=      5-min Rain = 0
KUM1 111803Z 00010KT 02/M12 A3017 RMK A01 T00171118  RH  036%=      5-min Rain = 0
KUM1 111804Z 35010KT 02/M12 A3017 RMK A01 T00181120  RH  035%=      5-min Rain = 0
KUM1 111805Z 00013KT 02/M12 A3017 RMK A01 T00151124  RH  035%=      5-min Rain = 0
KUM1 111806Z 36014KT 01/M13 A3017 RMK A01 T00141126  RH  034%=      5-min Rain = 0
KUM1 111807Z 35013KT 02/M12 A3017 RMK A01 T00181123  RH  034%=      5-min Rain = 0
KUM1 111808Z 00011KT 02/M12 A3017 RMK A01 T00191124  RH  034%=      5-min Rain = 0
KUM1 111809Z 01007KT 02/M13 A3017 RMK A01 T00171126  RH  034%=      5-min Rain = 0
KUM1 111810Z 34011KT 02/M12 A3017 RMK A01 T00171123  RH  035%=      5-min Rain = 0
KUM1 111811Z 34007KT 02/M12 A3017 RMK A01 T00171124  RH  034%=      5-min Rain = 0
KUM1 111812Z 34008KT 02/M12 A3017 RMK A01 T00191119  RH  035%=      5-min Rain = 0
KUM1 111813Z 35010KT 03/M12 A3017 RMK A01 T00251115  RH  035%=      5-min Rain = 0
KUM1 111814Z 01009KT 03/M12 A3017 RMK A01 T00271118  RH  033%=      5-min Rain = 0
KUM1 111815Z 36009KT 03/M12 A3017 RMK A01 T00261120  RH  033%=      5-min Rain = 0
KUM1 111816Z 02009KT 03/M12 A3017 RMK A01 T00261120  RH  033%=      5-min Rain = 0
KUM1 111817Z 01008KT 02/M12 A3017 RMK A01 T00231122  RH  033%=      5-min Rain = 0
KUM1 111818Z 01011KT 02/M12 A3017 RMK A01 T00221120  RH  034%=      5-min Rain = 0
KUM1 111819Z 01011KT 02/M12 A3017 RMK A01 T00211121  RH  034%=      5-min Rain = 0
KUM1 111820Z 35012KT 02/M12 A3016 RMK A01 T00211120  RH  034%=      5-min Rain = 0
KUM1 111821Z 36010KT 02/M12 A3016 RMK A01 T00231120  RH  034%=      5-min Rain = 0
KUM1 111822Z 33010KT 02/M12 A3016 RMK A01 T00211123  RH  034%=      5-min Rain = 0
KUM1 111823Z 33009KT 02/M12 A3016 RMK A01 T00211121  RH  034%=      5-min Rain = 0
KUM1 111824Z 35011KT 02/M12 A3016 RMK A01 T00211121  RH  034%=      5-min Rain = 0
KUM1 111825Z 35009KT 02/M12 A3016 RMK A01 T00211122  RH  034%=      5-min Rain = 0
KUM1 111826Z 02010KT 02/M12 A3016 RMK A01 T00221122  RH  034%=      5-min Rain = 0
KUM1 111827Z 02010KT 02/M12 A3016 RMK A01 T00241121  RH  033%=      5-min Rain = 0
KUM1 111828Z 03012KT 02/M12 A3016 RMK A01 T00241123  RH  033%=      5-min Rain = 0
KUM1 111829Z 02010KT 02/M13 A3016 RMK A01 T00231127  RH  032%=      5-min Rain = 0
KUM1 111830Z 35011KT 03/M13 A3016 RMK A01 T00251126  RH  032%=      5-min Rain = 0
KUM1 111831Z 36010KT 03/M13 A3016 RMK A01 T00251126  RH  032%=      5-min Rain = 0
KUM1 111832Z 36008KT 02/M13 A3016 RMK A01 T00221129  RH  032%=      5-min Rain = 0
KUM1 111833Z 00006KT 02/M13 A3016 RMK A01 T00191129  RH  032%=      5-min Rain = 0
KUM1 111834Z 34007KT 02/M12 A3016 RMK A01 T00221124  RH  033%=      5-min Rain = 0
KUM1 111835Z 01010KT 02/M12 A3016 RMK A01 T00241122  RH  033%=      5-min Rain = 0
KUM1 111836Z 02009KT 03/M12 A3016 RMK A01 T00251120  RH  033%=      5-min Rain = 0
KUM1 111837Z 02007KT 03/M12 A3016 RMK A01 T00251122  RH  033%=      5-min Rain = 0
KUM1 111838Z 03007KT 02/M12 A3016 RMK A01 T00231124  RH  033%=      5-min Rain = 0
KUM1 111839Z 35008KT 02/M12 A3016 RMK A01 T00231123  RH  033%=      5-min Rain = 0
KUM1 111840Z 00007KT 03/M12 A3016 RMK A01 T00271118  RH  033%=      5-min Rain = 0
KUM1 111841Z 02008KT 03/M12 A3016 RMK A01 T00301119  RH  033%=      5-min Rain = 0
KUM1 111842Z 01008KT 03/M12 A3016 RMK A01 T00281120  RH  033%=      5-min Rain = 0
KUM1 111843Z 02008KT 03/M12 A3016 RMK A01 T00291119  RH  033%=      5-min Rain = 0
KUM1 111844Z 03007KT 03/M12 A3016 RMK A01 T00311117  RH  033%=      5-min Rain = 0
KUM1 111845Z 02012KT 03/M12 A3015 RMK A01 T00301120  RH  032%=      5-min Rain = 0
KUM1 111846Z 02011KT 03/M12 A3015 RMK A01 T00321121  RH  032%=      5-min Rain = 0
KUM1 111847Z 02012KT 03/M12 A3015 RMK A01 T00331122  RH  031%=      5-min Rain = 0
KUM1 111848Z 01009KT 03/M12 A3015 RMK A01 T00341124  RH  030%=      5-min Rain = 0
KUM1 111849Z 35011KT 04/M13 A3015 RMK A01 T00361125  RH  030%=      5-min Rain = 0
KUM1 111850Z 36010KT 04/M13 A3015 RMK A01 T00361127  RH  029%=      5-min Rain = 0
KUM1 111851Z 35008KT 03/M13 A3015 RMK A01 T00311130  RH  029%=      5-min Rain = 0
KUM1 111852Z 35009KT 03/M13 A3015 RMK A01 T00321126  RH  030%=      5-min Rain = 0
KUM1 111853Z 01007KT 03/M13 A3015 RMK A01 T00311130  RH  030%=      5-min Rain = 0
KUM1 111854Z 34008KT 03/M13 A3015 RMK A01 T00271132  RH  030%=      5-min Rain = 0
KUM1 111855Z 34007KT 03/M13 A3015 RMK A01 T00301127  RH  030%=      5-min Rain = 0
KUM1 111856Z 35005KT 03/M13 A3015 RMK A01 T00311128  RH  030%=      5-min Rain = 0
KUM1 111857Z 34006KT 03/M13 A3014 RMK A01 T00321128  RH  030%=      5-min Rain = 0
KUM1 111858Z 00008KT 03/M13 A3014 RMK A01 T00331125  RH  030%=      5-min Rain = 0
KUM1 111859Z 01008KT 03/M13 A3014 RMK A01 T00341126  RH  030%=      5-min Rain = 0
KUM1 111900Z 02007KT 03/M13 A3014 RMK A01 T00321128  RH  030%=      5-min Rain = 0
KUM1 111901Z 02005KT 03/M13 A3014 RMK A01 T00291131  RH  030%=      5-min Rain = 0
KUM1 111902Z 03008KT 03/M13 A3014 RMK A01 T00291127  RH  031%=      5-min Rain = 0
KUM1 111903Z 04005KT 03/M13 A3014 RMK A01 T00291127  RH  031%=      5-min Rain = 0
KUM1 111904Z 03004KT 03/M13 A3014 RMK A01 T00291125  RH  031%=      5-min Rain = 0
KUM1 111905Z 02007KT 03/M13 A3014 RMK A01 T00291126  RH  031%=      5-min Rain = 0
KUM1 111906Z 35007KT 03/M13 A3014 RMK A01 T00301128  RH  030%=      5-min Rain = 0
KUM1 111907Z 34006KT 03/M13 A3014 RMK A01 T00331128  RH  030%=      5-min Rain = 0
KUM1 111908Z 32007KT 03/M13 A3014 RMK A01 T00341128  RH  029%=      5-min Rain = 0
KUM1 111909Z 34006KT 03/M13 A3014 RMK A01 T00331129  RH  029%=      5-min Rain = 0
KUM1 111910Z 34004KT 03/M13 A3014 RMK A01 T00321128  RH  030%=      5-min Rain = 0
KUM1 111911Z 35007KT 03/M13 A3014 RMK A01 T00331126  RH  030%=      5-min Rain = 0
KUM1 111912Z 01006KT 04/M12 A3014 RMK A01 T00371122  RH  030%=      5-min Rain = 0
KUM1 111913Z 34005KT 04/M12 A3013 RMK A01 T00381124  RH  030%=      5-min Rain = 0
KUM1 111914Z 35006KT 04/M12 A3013 RMK A01 T00371124  RH  030%=      5-min Rain = 0
KUM1 111915Z 01008KT 04/M12 A3013 RMK A01 T00371123  RH  030%=      5-min Rain = 0
KUM1 111916Z 02006KT 04/M12 A3013 RMK A01 T00381124  RH  030%=      5-min Rain = 0
KUM1 111917Z 03007KT 04/M13 A3013 RMK A01 T00361125  RH  030%=      5-min Rain = 0
KUM1 111918Z 05003KT 03/M13 A3013 RMK A01 T00341127  RH  030%=      5-min Rain = 0
KUM1 111919Z 09002KT 03/M13 A3013 RMK A01 T00321128  RH  030%=      5-min Rain = 0
KUM1 111920Z 03001KT 03/M13 A3013 RMK A01 T00321127  RH  030%=      5-min Rain = 0
KUM1 111921Z 01004KT 03/M12 A3013 RMK A01 T00341124  RH  031%=      5-min Rain = 0
KUM1 111922Z 03002KT 04/M13 A3013 RMK A01 T00351126  RH  030%=      5-min Rain = 0
KUM1 111923Z 04004KT 04/M13 A3013 RMK A01 T00351127  RH  030%=      5-min Rain = 0
KUM1 111924Z 01005KT 04/M13 A3013 RMK A01 T00351126  RH  030%=      5-min Rain = 0
KUM1 111925Z 34004KT 04/M12 A3013 RMK A01 T00371124  RH  030%=      5-min Rain = 0
KUM1 111926Z 34005KT 04/M12 A3013 RMK A01 T00411121  RH  029%=      5-min Rain = 0
KUM1 111927Z 35008KT 05/M12 A3013 RMK A01 T00451122  RH  029%=      5-min Rain = 0
KUM1 111928Z 35006KT 04/M13 A3013 RMK A01 T00421127  RH  028%=      5-min Rain = 0
KUM1 111929Z 36004KT 04/M13 A3013 RMK A01 T00391129  RH  028%=      5-min Rain = 0
KUM1 111930Z 01003G8KT 04/M13 A3012 RMK A01 T00371131  RH  028%=      5-min Rain = 0
KUM1 111931Z 01006KT 04/M13 A3012 RMK A01 T00371131  RH  028%=      5-min Rain = 0
KUM1 111932Z 03004KT 04/M13 A3012 RMK A01 T00361131  RH  028%=      5-min Rain = 0
KUM1 111933Z 05003KT 04/M13 A3012 RMK A01 T00361131  RH  028%=      5-min Rain = 0
KUM1 111934Z 09001KT 04/M13 A3012 RMK A01 T00351132  RH  028%=      5-min Rain = 0
KUM1 111935Z 32002KT 04/M13 A3012 RMK A01 T00361129  RH  029%=      5-min Rain = 0
KUM1 111936Z 32004KT 04/M13 A3012 RMK A01 T00401125  RH  029%=      5-min Rain = 0
KUM1 111937Z 33005KT 04/M13 A3012 RMK A01 T00421125  RH  028%=      5-min Rain = 0
KUM1 111938Z 01005KT 04/M13 A3012 RMK A01 T00431128  RH  028%=      5-min Rain = 0
KUM1 111939Z 01006KT 04/M13 A3012 RMK A01 T00411130  RH  028%=      5-min Rain = 0
KUM1 111940Z 34008KT 04/M13 A3012 RMK A01 T00401130  RH  028%=      5-min Rain = 0
KUM1 111941Z 34007KT 04/M13 A3012 RMK A01 T00421127  RH  028%=      5-min Rain = 0
KUM1 111942Z 31003KT 04/M13 A3011 RMK A01 T00431128  RH  028%=      5-min Rain = 0
KUM1 111943Z 31003KT 04/M13 A3011 RMK A01 T00421128  RH  028%=      5-min Rain = 0
KUM1 111944Z 33006KT 04/M13 A3011 RMK A01 T00421129  RH  028%=      5-min Rain = 0
KUM1 111945Z 00006KT 04/M13 A3011 RMK A01 T00431127  RH  028%=      5-min Rain = 0
KUM1 111946Z 02005KT 04/M13 A3011 RMK A01 T00441128  RH  027%=      5-min Rain = 0
KUM1 111947Z 35007KT 04/M13 A3011 RMK A01 T00431128  RH  028%=      5-min Rain = 0
KUM1 111948Z 34006KT 05/M13 A3011 RMK A01 T00451127  RH  027%=      5-min Rain = 0
KUM1 111949Z 32005KT 04/M13 A3011 RMK A01 T00421130  RH  027%=      5-min Rain = 0
KUM1 111950Z 31002KT 04/M13 A3011 RMK A01 T00411130  RH  027%=      5-min Rain = 0
KUM1 111951Z 00001KT 04/M13 A3011 RMK A01 T00411128  RH  028%=      5-min Rain = 0
KUM1 111952Z 02003G8KT 04/M13 A3011 RMK A01 T00421128  RH  028%=      5-min Rain = 0
KUM1 111953Z 03005KT 04/M13 A3011 RMK A01 T00431129  RH  027%=      5-min Rain = 0
KUM1 111954Z 04007KT 04/M13 A3011 RMK A01 T00421130  RH  027%=      5-min Rain = 0
KUM1 111955Z 02005KT 04/M13 A3011 RMK A01 T00421131  RH  027%=      5-min Rain = 0
KUM1 111956Z 02004KT 04/M13 A3011 RMK A01 T00431129  RH  027%=      5-min Rain = 0
KUM1 111957Z 01004KT 05/M13 A3011 RMK A01 T00451128  RH  027%=      5-min Rain = 0
KUM1 111958Z 03004KT 05/M13 A3011 RMK A01 T00461129  RH  027%=      5-min Rain = 0
KUM1 111959Z 01003KT 04/M13 A3011 RMK A01 T00431132  RH  027%=      5-min Rain = 0
KUM1 112000Z 35003KT 04/M13 A3011 RMK A01 T00431130  RH  027%=      5-min Rain = 0
KUM1 112001Z 35003G8KT 04/M13 A3011 RMK A01 T00431129  RH  027%=      5-min Rain = 0
KUM1 112002Z 05006KT 05/M13 A3011 RMK A01 T00451127  RH  027%=      5-min Rain = 0
KUM1 112003Z 04005KT 05/M13 A3011 RMK A01 T00461129  RH  027%=      5-min Rain = 0
KUM1 112004Z 04006KT 04/M13 A3011 RMK A01 T00441131  RH  027%=      5-min Rain = 0
KUM1 112005Z 03005KT 04/M13 A3011 RMK A01 T00441130  RH  027%=      5-min Rain = 0
KUM1 112006Z 00003KT 04/M13 A3011 RMK A01 T00431130  RH  027%=      5-min Rain = 0
KUM1 112007Z 34002KT 04/M13 A3011 RMK A01 T00421131  RH  027%=      5-min Rain = 0
KUM1 112008Z 33001KT 04/M13 A3011 RMK A01 T00431129  RH  027%=      5-min Rain = 0
KUM1 112009Z 25000KT 04/M13 A3011 RMK A01 T00441130  RH  027%=      5-min Rain = 0
KUM1 112010Z 30001KT 05/M13 A3011 RMK A01 T00471128  RH  027%=      5-min Rain = 0
KUM1 112011Z 27002KT 05/M13 A3011 RMK A01 T00511125  RH  027%=      5-min Rain = 0
KUM1 112012Z 28002KT 05/M12 A3011 RMK A01 T00541124  RH  026%=      5-min Rain = 0
KUM1 112013Z 34001KT 05/M13 A3011 RMK A01 T00541125  RH  026%=      5-min Rain = 0
KUM1 112014Z 06004KT 05/M13 A3011 RMK A01 T00541127  RH  026%=      5-min Rain = 0
KUM1 112015Z 04005KT 05/M13 A3011 RMK A01 T00541129  RH  025%=      5-min Rain = 0
KUM1 112016Z 06002KT 05/M13 A3011 RMK A01 T00511133  RH  025%=      5-min Rain = 0
KUM1 112017Z 20002KT 05/M13 A3011 RMK A01 T00481134  RH  025%=      5-min Rain = 0
KUM1 112018Z 10003KT 05/M13 A3011 RMK A01 T00481132  RH  026%=      5-min Rain = 0
KUM1 112019Z 09003KT 05/M13 A3011 RMK A01 T00521127  RH  026%=      5-min Rain = 0
KUM1 112020Z 05003KT 05/M13 A3011 RMK A01 T00531128  RH  026%=      5-min Rain = 0
KUM1 112021Z 01006KT 05/M13 A3011 RMK A01 T00541126  RH  026%=      5-min Rain = 0
KUM1 112022Z 01006KT 05/M13 A3011 RMK A01 T00541126  RH  026%=      5-min Rain = 0
KUM1 112023Z 01008KT 06/M13 A3011 RMK A01 T00551127  RH  026%=      5-min Rain = 0
KUM1 112024Z 02008KT 05/M13 A3011 RMK A01 T00541130  RH  025%=      5-min Rain = 0
KUM1 112025Z 03006KT 05/M13 A3011 RMK A01 T00511133  RH  025%=      5-min Rain = 0
KUM1 112026Z 03007KT 05/M13 A3011 RMK A01 T00501133  RH  025%=      5-min Rain = 0
KUM1 112027Z 04004KT 05/M13 A3011 RMK A01 T00491132  RH  026%=      5-min Rain = 0
KUM1 112028Z 01005KT 05/M13 A3011 RMK A01 T00491132  RH  026%=      5-min Rain = 0
KUM1 112029Z 33006KT 05/M13 A3011 RMK A01 T00501131  RH  026%=      5-min Rain = 0
KUM1 112030Z 34007KT 05/M13 A3011 RMK A01 T00531129  RH  026%=      5-min Rain = 0
KUM1 112031Z 01005KT 05/M13 A3011 RMK A01 T00531132  RH  025%=      5-min Rain = 0
KUM1 112032Z 04006KT 05/M13 A3011 RMK A01 T00501134  RH  025%=      5-min Rain = 0
KUM1 112033Z 05002KT 05/M13 A3011 RMK A01 T00491134  RH  025%=      5-min Rain = 0
KUM1 112034Z 07002KT 05/M13 A3011 RMK A01 T00501133  RH  025%=      5-min Rain = 0
KUM1 112035Z 04002KT 05/M13 A3011 RMK A01 T00501133  RH  025%=      5-min Rain = 0
KUM1 112036Z 02003KT 05/M13 A3011 RMK A01 T00521131  RH  025%=      5-min Rain = 0
KUM1 112037Z 02006KT 05/M13 A3011 RMK A01 T00541130  RH  025%=      5-min Rain = 0
KUM1 112038Z 02007KT 06/M13 A3011 RMK A01 T00551131  RH  025%=      5-min Rain = 0
KUM1 112039Z 36008KT 06/M13 A3011 RMK A01 T00561133  RH  024%=      5-min Rain = 0
KUM1 112040Z 01007KT 06/M14 A3011 RMK A01 T00551135  RH  024%=      5-min Rain = 0
KUM1 112041Z 02006KT 05/M14 A3011 RMK A01 T00541135  RH  024%=      5-min Rain = 0
KUM1 112042Z 04006KT 05/M14 A3011 RMK A01 T00541135  RH  024%=      5-min Rain = 0
KUM1 112043Z 03006KT 05/M14 A3011 RMK A01 T00521137  RH  024%=      5-min Rain = 0
KUM1 112044Z 04008KT 05/M14 A3011 RMK A01 T00521136  RH  024%=      5-min Rain = 0
KUM1 112045Z 05006KT 05/M14 A3011 RMK A01 T00521135  RH  024%=      5-min Rain = 0
KUM1 112046Z 04006KT 05/M13 A3011 RMK A01 T00531134  RH  025%=      5-min Rain = 0
KUM1 112047Z 05004KT 05/M13 A3011 RMK A01 T00531134  RH  025%=      5-min Rain = 0
KUM1 112048Z 03002KT 06/M13 A3011 RMK A01 T00551132  RH  025%=      5-min Rain = 0
KUM1 112049Z 02003KT 06/M13 A3011 RMK A01 T00581131  RH  024%=      5-min Rain = 0
KUM1 112050Z 02004KT 06/M13 A3011 RMK A01 T00581133  RH  024%=      5-min Rain = 0
KUM1 112051Z 03001KT 05/M14 A3011 RMK A01 T00541137  RH  024%=      5-min Rain = 0
KUM1 112052Z 05001KT 05/M14 A3011 RMK A01 T00531135  RH  024%=      5-min Rain = 0
KUM1 112053Z 35001KT 05/M13 A3011 RMK A01 T00541133  RH  024%=      5-min Rain = 0
KUM1 112054Z 05000KT 06/M13 A3011 RMK A01 T00561132  RH  024%=      5-min Rain = 0
KUM1 112055Z 10002KT 06/M13 A3011 RMK A01 T00581131  RH  024%=      5-min Rain = 0
KUM1 112056Z 13002KT 06/M13 A3011 RMK A01 T00601128  RH  024%=      5-min Rain = 0
KUM1 112057Z 12001KT 06/M13 A3011 RMK A01 T00631128  RH  024%=      5-min Rain = 0
KUM1 112058Z 15002KT 06/M13 A3011 RMK A01 T00641130  RH  024%=      5-min Rain = 0
KUM1 112059Z 29006KT 06/M13 A3011 RMK A01 T00641130  RH  023%=      5-min Rain = 0
KUM1 112100Z 31006KT 07/M13 A3011 RMK A01 T00661128  RH  024%=      5-min Rain = 0
KUM1 112101Z 30006KT 07/M13 A3011 RMK A01 T00651129  RH  024%=      5-min Rain = 0
KUM1 112102Z 29005KT 06/M13 A3011 RMK A01 T00611132  RH  023%=      5-min Rain = 0
KUM1 112103Z 30005KT 06/M13 A3011 RMK A01 T00601131  RH  024%=      5-min Rain = 0
KUM1 112104Z 30004KT 06/M13 A3011 RMK A01 T00601130  RH  024%=      5-min Rain = 0
KUM1 112105Z 30008KT 06/M13 A3011 RMK A01 T00601131  RH  024%=      5-min Rain = 0
KUM1 112106Z 29006KT 06/M13 A3011 RMK A01 T00601131  RH  024%=      5-min Rain = 0
KUM1 112107Z 32003KT 06/M13 A3011 RMK A01 T00581133  RH  024%=      5-min Rain = 0
KUM1 112108Z 01006KT 06/M13 A3011 RMK A01 T00581132  RH  024%=      5-min Rain = 0
KUM1 112109Z 35007KT 06/M13 A3011 RMK A01 T00591131  RH  024%=      5-min Rain = 0
KUM1 112110Z 34004KT 06/M13 A3011 RMK A01 T00591131  RH  024%=      5-min Rain = 0
KUM1 112111Z 34005KT 06/M13 A3011 RMK A01 T00591130  RH  024%=      5-min Rain = 0
KUM1 112112Z 33004KT 06/M13 A3011 RMK A01 T00601130  RH  024%=      5-min Rain = 0
KUM1 112113Z 36002KT 06/M13 A3011 RMK A01 T00601131  RH  024%=      5-min Rain = 0
KUM1 112114Z 02002KT 06/M13 A3011 RMK A01 T00601129  RH  024%=      5-min Rain = 0
KUM1 112115Z 02005KT 06/M13 A3011 RMK A01 T00621128  RH  024%=      5-min Rain = 0
KUM1 112116Z 02005KT 06/M13 A3011 RMK A01 T00631128  RH  024%=      5-min Rain = 0
KUM1 112117Z 35007KT 06/M13 A3011 RMK A01 T00621130  RH  024%=      5-min Rain = 0
KUM1 112118Z 34007KT 06/M13 A3011 RMK A01 T00631130  RH  024%=      5-min Rain = 0
KUM1 112119Z 34005KT 06/M13 A3011 RMK A01 T00611132  RH  024%=      5-min Rain = 0
KUM1 112120Z 33003KT 06/M13 A3011 RMK A01 T00581134  RH  024%=      5-min Rain = 0
KUM1 112121Z 33003KT 06/M13 A3011 RMK A01 T00591132  RH  024%=      5-min Rain = 0
KUM1 112122Z 32003KT 06/M13 A3011 RMK A01 T00591132  RH  024%=      5-min Rain = 0
KUM1 112123Z 32008KT 06/M13 A3011 RMK A01 T00611129  RH  024%=      5-min Rain = 0
KUM1 112124Z 31006KT 06/M13 A3011 RMK A01 T00621130  RH  024%=      5-min Rain = 0
KUM1 112125Z 32004KT 06/M13 A3011 RMK A01 T00611132  RH  024%=      5-min Rain = 0
KUM1 112126Z 32003KT 06/M13 A3011 RMK A01 T00601132  RH  024%=      5-min Rain = 0
KUM1 112127Z 33003KT 06/M13 A3011 RMK A01 T00611131  RH  024%=      5-min Rain = 0
KUM1 112128Z 32002KT 06/M13 A3011 RMK A01 T00611130  RH  024%=      5-min Rain = 0
KUM1 112129Z 03005KT 06/M13 A3011 RMK A01 T00631128  RH  024%=      5-min Rain = 0
KUM1 112130Z 03006KT 06/M13 A3011 RMK A01 T00641130  RH  023%=      5-min Rain = 0
KUM1 112131Z 03006KT 06/M13 A3011 RMK A01 T00611132  RH  024%=      5-min Rain = 0
KUM1 112132Z 05005KT 06/M13 A3011 RMK A01 T00601131  RH  024%=      5-min Rain = 0
KUM1 112133Z 07002KT 06/M13 A3011 RMK A01 T00591132  RH  024%=      5-min Rain = 0
KUM1 112134Z 08003KT 06/M13 A3011 RMK A01 T00591132  RH  024%=      5-min Rain = 0
KUM1 112135Z 08003KT 06/M13 A3011 RMK A01 T00601130  RH  024%=      5-min Rain = 0
KUM1 112136Z 36003KT 06/M13 A3011 RMK A01 T00611129  RH  024%=      5-min Rain = 0
KUM1 112137Z 32002KT 06/M13 A3011 RMK A01 T00631129  RH  024%=      5-min Rain = 0
KUM1 112138Z 01005KT 06/M13 A3011 RMK A01 T00631131  RH  024%=      5-min Rain = 0
KUM1 112139Z 01007KT 06/M13 A3011 RMK A01 T00641128  RH  024%=      5-min Rain = 0
KUM1 112140Z 02005KT 06/M13 A3011 RMK A01 T00641129  RH  024%=      5-min Rain = 0
KUM1 112141Z 03004KT 06/M13 A3011 RMK A01 T00631130  RH  024%=      5-min Rain = 0
KUM1 112142Z 02005KT 06/M13 A3011 RMK A01 T00631130  RH  024%=      5-min Rain = 0
KUM1 112143Z 35003KT 07/M13 A3011 RMK A01 T00651127  RH  024%=      5-min Rain = 0
KUM1 112144Z 33003KT 07/M13 A3011 RMK A01 T00671128  RH  023%=      5-min Rain = 0
KUM1 112145Z 29002KT 07/M13 A3011 RMK A01 T00651131  RH  023%=      5-min Rain = 0
KUM1 112146Z 31000KT 06/M13 A3011 RMK A01 T00641131  RH  023%=      5-min Rain = 0
KUM1 112147Z 32001KT 06/M13 A3011 RMK A01 T00631131  RH  023%=      5-min Rain = 0
KUM1 112148Z 34005KT 07/M13 A3011 RMK A01 T00651128  RH  024%=      5-min Rain = 0
KUM1 112149Z 34005KT 07/M13 A3011 RMK A01 T00661130  RH  023%=      5-min Rain = 0
KUM1 112150Z 35003KT 06/M13 A3011 RMK A01 T00641132  RH  023%=      5-min Rain = 0
KUM1 112151Z 03002KT 06/M13 A3011 RMK A01 T00631131  RH  023%=      5-min Rain = 0
KUM1 112152Z 01002KT 06/M13 A3011 RMK A01 T00631131  RH  023%=      5-min Rain = 0
KUM1 112153Z 34004KT 06/M13 A3011 RMK A01 T00641131  RH  023%=      5-min Rain = 0
KUM1 112154Z 35005KT 06/M13 A3011 RMK A01 T00631131  RH  023%=      5-min Rain = 0
KUM1 112155Z 01005KT 06/M13 A3011 RMK A01 T00631131  RH  023%=      5-min Rain = 0
KUM1 112156Z 04004KT 06/M13 A3011 RMK A01 T00641131  RH  023%=      5-min Rain = 0
KUM1 112157Z 04003KT 06/M13 A3011 RMK A01 T00631131  RH  023%=      5-min Rain = 0
KUM1 112158Z 33003KT 06/M13 A3011 RMK A01 T00631131  RH  023%=      5-min Rain = 0
KUM1 112159Z 34004KT 07/M13 A3011 RMK A01 T00651129  RH  024%=      5-min Rain = 0
KUM1 112200Z 35006KT 07/M13 A3011 RMK A01 T00671128  RH  023%=      5-min Rain = 0
KUM1 112201Z 00005KT 07/M13 A3011 RMK A01 T00661131  RH  023%=      5-min Rain = 0
KUM1 112202Z 00003KT 06/M13 A3011 RMK A01 T00641132  RH  023%=      5-min Rain = 0
KUM1 112203Z 02002KT 06/M13 A3011 RMK A01 T00631132  RH  023%=      5-min Rain = 0
KUM1 112204Z 04002KT 06/M13 A3011 RMK A01 T00641131  RH  023%=      5-min Rain = 0
KUM1 112205Z 03004KT 06/M13 A3011 RMK A01 T00641131  RH  023%=      5-min Rain = 0
KUM1 112206Z 01005KT 07/M13 A3011 RMK A01 T00651130  RH  023%=      5-min Rain = 0
KUM1 112207Z 36008KT 07/M13 A3011 RMK A01 T00651131  RH  023%=      5-min Rain = 0
KUM1 112208Z 33006KT 07/M13 A3011 RMK A01 T00661130  RH  023%=      5-min Rain = 0
KUM1 112209Z 32004KT 07/M13 A3011 RMK A01 T00651132  RH  023%=      5-min Rain = 0
KUM1 112210Z 32003KT 07/M13 A3011 RMK A01 T00651130  RH  023%=      5-min Rain = 0
KUM1 112211Z 32005KT 07/M13 A3011 RMK A01 T00671129  RH  023%=      5-min Rain = 0
KUM1 112212Z 32005KT 07/M13 A3011 RMK A01 T00671131  RH  023%=      5-min Rain = 0
KUM1 112213Z 32004KT 07/M13 A3011 RMK A01 T00651132  RH  023%=      5-min Rain = 0
KUM1 112214Z 33003KT 07/M13 A3011 RMK A01 T00651132  RH  023%=      5-min Rain = 0
KUM1 112215Z 02002KT 07/M13 A3011 RMK A01 T00651131  RH  023%=      5-min Rain = 0
KUM1 112216Z 06002KT 07/M13 A3011 RMK A01 T00651131  RH  023%=      5-min Rain = 0
KUM1 112217Z 05002KT 07/M13 A3011 RMK A01 T00661129  RH  023%=      5-min Rain = 0
KUM1 112218Z 00001KT 07/M13 A3011 RMK A01 T00691128  RH  023%=      5-min Rain = 0
KUM1 112219Z 08001KT 07/M13 A3011 RMK A01 T00701129  RH  023%=      5-min Rain = 0
KUM1 112220Z 05002KT 07/M13 A3011 RMK A01 T00701130  RH  023%=      5-min Rain = 0
KUM1 112221Z 04001KT 07/M13 A3011 RMK A01 T00691131  RH  022%=      5-min Rain = 0
KUM1 112222Z 36004KT 07/M13 A3011 RMK A01 T00681131  RH  023%=      5-min Rain = 0
KUM1 112223Z 01005KT 07/M13 A3011 RMK A01 T00691130  RH  023%=      5-min Rain = 0
KUM1 112224Z 01006KT 07/M13 A3011 RMK A01 T00681132  RH  022%=      5-min Rain = 0
KUM1 112225Z 01005KT 07/M13 A3011 RMK A01 T00671133  RH  022%=      5-min Rain = 0
KUM1 112226Z 04003KT 06/M13 A3011 RMK A01 T00641134  RH  023%=      5-min Rain = 0
KUM1 112227Z 05001KT 06/M13 A3011 RMK A01 T00641132  RH  023%=      5-min Rain = 0
KUM1 112228Z 08001KT 07/M13 A3011 RMK A01 T00651132  RH  023%=      5-min Rain = 0
KUM1 112229Z 01003KT 07/M13 A3011 RMK A01 T00671130  RH  023%=      5-min Rain = 0
KUM1 112230Z 35003KT 07/M13 A3011 RMK A01 T00681131  RH  023%=      5-min Rain = 0
KUM1 112231Z 34008KT 07/M13 A3011 RMK A01 T00681132  RH  023%=      5-min Rain = 0
KUM1 112232Z 36006KT 07/M13 A3011 RMK A01 T00681132  RH  022%=      5-min Rain = 0
KUM1 112233Z 34007KT 07/M13 A3011 RMK A01 T00671133  RH  022%=      5-min Rain = 0
KUM1 112234Z 34006KT 07/M13 A3011 RMK A01 T00661134  RH  022%=      5-min Rain = 0
KUM1 112235Z 34004KT 07/M14 A3011 RMK A01 T00651135  RH  023%=      5-min Rain = 0
KUM1 112236Z 36006KT 06/M13 A3011 RMK A01 T00641134  RH  023%=      5-min Rain = 0
KUM1 112237Z 35006KT 07/M13 A3011 RMK A01 T00651133  RH  023%=      5-min Rain = 0
KUM1 112238Z 35006KT 06/M13 A3011 RMK A01 T00641134  RH  023%=      5-min Rain = 0
KUM1 112239Z 33007KT 06/M13 A3012 RMK A01 T00641134  RH  023%=      5-min Rain = 0
KUM1 112240Z 32006KT 07/M13 A3012 RMK A01 T00651133  RH  023%=      5-min Rain = 0
KUM1 112241Z 32004KT 07/M13 A3012 RMK A01 T00661133  RH  023%=      5-min Rain = 0
KUM1 112242Z 30001KT 07/M13 A3012 RMK A01 T00661133  RH  023%=      5-min Rain = 0
KUM1 112243Z 35001KT 07/M13 A3012 RMK A01 T00661133  RH  023%=      5-min Rain = 0
KUM1 112244Z 29003KT 07/M13 A3012 RMK A01 T00671133  RH  022%=      5-min Rain = 0
KUM1 112245Z 28003KT 07/M13 A3012 RMK A01 T00681133  RH  022%=      5-min Rain = 0
KUM1 112246Z 30002KT 07/M13 A3012 RMK A01 T00681133  RH  022%=      5-min Rain = 0
KUM1 112247Z 28004KT 07/M13 A3012 RMK A01 T00681133  RH  022%=      5-min Rain = 0
KUM1 112248Z 33003KT 07/M13 A3012 RMK A01 T00701131  RH  022%=      5-min Rain = 0
KUM1 112249Z 30003KT 07/M13 A3012 RMK A01 T00701132  RH  022%=      5-min Rain = 0
KUM1 112250Z 32004KT 07/M13 A3012 RMK A01 T00701133  RH  022%=      5-min Rain = 0
KUM1 112251Z 29004KT 07/M13 A3012 RMK A01 T00691133  RH  022%=      5-min Rain = 0
KUM1 112252Z 28004KT 07/M13 A3012 RMK A01 T00681134  RH  022%=      5-min Rain = 0
KUM1 112253Z 31002KT 07/M13 A3012 RMK A01 T00691133  RH  022%=      5-min Rain = 0
KUM1 112254Z 31001KT 07/M13 A3012 RMK A01 T00681134  RH  022%=      5-min Rain = 0
KUM1 112255Z 29003KT 07/M13 A3012 RMK A01 T00681133  RH  022%=      5-min Rain = 0
KUM1 112256Z 27004KT 07/M13 A3012 RMK A01 T00691133  RH  022%=      5-min Rain = 0
KUM1 112257Z 26001KT 07/M13 A3012 RMK A01 T00681134  RH  022%=      5-min Rain = 0
KUM1 112258Z 01000KT 07/M13 A3012 RMK A01 T00681134  RH  022%=      5-min Rain = 0
KUM1 112259Z 11000KT 07/M13 A3012 RMK A01 T00681134  RH  022%=      5-min Rain = 0
KUM1 112300Z 21001KT 07/M13 A3012 RMK A01 T00671134  RH  022%=      5-min Rain = 0
KUM1 112301Z 22002KT 07/M13 A3012 RMK A01 T00681133  RH  022%=      5-min Rain = 0
KUM1 112302Z 24003KT 07/M13 A3012 RMK A01 T00691133  RH  022%=      5-min Rain = 0
KUM1 112303Z 26004KT 07/M13 A3012 RMK A01 T00701133  RH  022%=      5-min Rain = 0
KUM1 112304Z 26004KT 07/M13 A3012 RMK A01 T00701133  RH  022%=      5-min Rain = 0
KUM1 112305Z 25003KT 07/M13 A3012 RMK A01 T00701133  RH  022%=      5-min Rain = 0
KUM1 112306Z 26005KT 07/M13 A3012 RMK A01 T00691134  RH  022%=      5-min Rain = 0
KUM1 112307Z 26004KT 07/M13 A3012 RMK A01 T00701133  RH  022%=      5-min Rain = 0
KUM1 112308Z 24003KT 07/M13 A3012 RMK A01 T00691133  RH  022%=      5-min Rain = 0
KUM1 112309Z 20001KT 07/M14 A3012 RMK A01 T00681135  RH  022%=      5-min Rain = 0
KUM1 112310Z 16001KT 07/M14 A3012 RMK A01 T00671135  RH  022%=      5-min Rain = 0
KUM1 112311Z 20001KT 07/M13 A3012 RMK A01 T00671134  RH  022%=      5-min Rain = 0
KUM1 112312Z 21002KT 07/M13 A3012 RMK A01 T00681133  RH  022%=      5-min Rain = 0
KUM1 112313Z 20001KT 07/M13 A3012 RMK A01 T00681134  RH  022%=      5-min Rain = 0
KUM1 112314Z 20002KT 07/M13 A3012 RMK A01 T00681134  RH  022%=      5-min Rain = 0
KUM1 112315Z 20002KT 07/M13 A3012 RMK A01 T00691134  RH  022%=      5-min Rain = 0
KUM1 112316Z 19002KT 07/M13 A3012 RMK A01 T00691134  RH  022%=      5-min Rain = 0
KUM1 112317Z 18001KT 07/M13 A3012 RMK A01 T00681134  RH  022%=      5-min Rain = 0
KUM1 112318Z 17002KT 07/M13 A3012 RMK A01 T00681134  RH  022%=      5-min Rain = 0
KUM1 112319Z 16001KT 07/M13 A3012 RMK A01 T00691134  RH  022%=      5-min Rain = 0
KUM1 112320Z 18001KT 07/M13 A3012 RMK A01 T00701133  RH  022%=      5-min Rain = 0
KUM1 112321Z 22000KT 07/M13 A3012 RMK A01 T00701134  RH  022%=      5-min Rain = 0
KUM1 112322Z 00000KT 07/M13 A3012 RMK A01 T00701134  RH  022%=      5-min Rain = 0
KUM1 112323Z 00000KT 07/M13 A3012 RMK A01 T00701134  RH  022%=      5-min Rain = 0
KUM1 112324Z 00000KT 07/M13 A3012 RMK A01 T00691134  RH  022%=      5-min Rain = 0
KUM1 112325Z 10000KT 07/M13 A3012 RMK A01 T00701133  RH  022%=      5-min Rain = 0
KUM1 112326Z 12002KT 07/M13 A3012 RMK A01 T00711134  RH  022%=      5-min Rain = 0
KUM1 112327Z 14002KT 07/M14 A3012 RMK A01 T00691135  RH  022%=      5-min Rain = 0
KUM1 112328Z 13002KT 07/M13 A3012 RMK A01 T00681134  RH  022%=      5-min Rain = 0
KUM1 112329Z 12002KT 07/M14 A3012 RMK A01 T00671135  RH  022%=      5-min Rain = 0
KUM1 112330Z 13002KT 07/M14 A3012 RMK A01 T00661135  RH  022%=      5-min Rain = 0
KUM1 112331Z 13002KT 07/M13 A3012 RMK A01 T00661134  RH  022%=      5-min Rain = 0
KUM1 112332Z 12002KT 07/M13 A3012 RMK A01 T00651134  RH  022%=      5-min Rain = 0
KUM1 112333Z 12002KT 07/M13 A3012 RMK A01 T00651134  RH  023%=      5-min Rain = 0
KUM1 112334Z 11002KT 07/M13 A3012 RMK A01 T00651134  RH  023%=      5-min Rain = 0
KUM1 112335Z 11003KT 06/M13 A3012 RMK A01 T00641134  RH  023%=      5-min Rain = 0
KUM1 112336Z 11003KT 06/M13 A3012 RMK A01 T00641134  RH  023%=      5-min Rain = 0
KUM1 112337Z 10002KT 06/M14 A3012 RMK A01 T00631135  RH  023%=      5-min Rain = 0
KUM1 112338Z 08002KT 06/M13 A3012 RMK A01 T00631134  RH  023%=      5-min Rain = 0
KUM1 112339Z 06003KT 06/M13 A3012 RMK A01 T00631134  RH  023%=      5-min Rain = 0
KUM1 112340Z 06002KT 06/M13 A3012 RMK A01 T00631134  RH  023%=      5-min Rain = 0
KUM1 112341Z 06002KT 06/M13 A3012 RMK A01 T00631134  RH  023%=      5-min Rain = 0
KUM1 112342Z 07002KT 06/M13 A3012 RMK A01 T00631134  RH  023%=      5-min Rain = 0
KUM1 112343Z 08002KT 06/M13 A3012 RMK A01 T00631134  RH  023%=      5-min Rain = 0
KUM1 112344Z 08001KT 06/M13 A3012 RMK A01 T00621134  RH  023%=      5-min Rain = 0
KUM1 112345Z 09001KT 06/M13 A3012 RMK A01 T00621134  RH  023%=      5-min Rain = 0
KUM1 112346Z 08001KT 06/M13 A3012 RMK A01 T00631134  RH  023%=      5-min Rain = 0
KUM1 112347Z 07001KT 06/M13 A3012 RMK A01 T00631134  RH  023%=      5-min Rain = 0
KUM1 112348Z 07001KT 06/M13 A3012 RMK A01 T00631134  RH  023%=      5-min Rain = 0
KUM1 112349Z 08000KT 06/M13 A3012 RMK A01 T00631134  RH  023%=      5-min Rain = 0
KUM1 112350Z 07000KT 06/M13 A3012 RMK A01 T00631134  RH  023%=      5-min Rain = 0
KUM1 112351Z 10001KT 06/M13 A3012 RMK A01 T00631134  RH  023%=      5-min Rain = 0
KUM1 112352Z 11001KT 06/M13 A3012 RMK A01 T00631134  RH  023%=      5-min Rain = 0
KUM1 112353Z 11001KT 06/M13 A3012 RMK A01 T00621134  RH  023%=      5-min Rain = 0
KUM1 112354Z 11001KT 06/M13 A3012 RMK A01 T00621134  RH  023%=      5-min Rain = 0
KUM1 112355Z 12001KT 06/M14 A3012 RMK A01 T00621135  RH  023%=      5-min Rain = 0
KUM1 112356Z 11001KT 06/M13 A3012 RMK A01 T00621134  RH  023%=      5-min Rain = 0
KUM1 112357Z 12000KT 06/M13 A3012 RMK A01 T00621134  RH  023%=      5-min Rain = 0
KUM1 112358Z 08000KT 06/M13 A3012 RMK A01 T00621134  RH  023%=      5-min Rain = 0
KUM1 112359Z 10000KT 06/M13 A3012 RMK A01 T00621134  RH  023%=      5-min Rain = 0
KUM1 120000Z 00000KT 06/M13 A3012 RMK A01 T00621134  RH  023%=      5-min Rain = 0
KUM1 120001Z 11000KT 06/M13 A3012 RMK A01 T00611134  RH  023%=      5-min Rain = 0
KUM1 120002Z 08001KT 06/M13 A3012 RMK A01 T00621134  RH  023%=      5-min Rain = 0
KUM1 120003Z 09002KT 06/M14 A3012 RMK A01 T00601135  RH  023%=      5-min Rain = 0
KUM1 120004Z 09002KT 06/M14 A3012 RMK A01 T00591135  RH  023%=      5-min Rain = 0
KUM1 120005Z 11001KT 06/M14 A3012 RMK A01 T00581135  RH  024%=      5-min Rain = 0
KUM1 120006Z 10001KT 06/M13 A3012 RMK A01 T00571134  RH  024%=      5-min Rain = 0
KUM1 120007Z 11001KT 06/M13 A3012 RMK A01 T00561134  RH  024%=      5-min Rain = 0
KUM1 120008Z 09002KT 06/M14 A3012 RMK A01 T00551135  RH  024%=      5-min Rain = 0
KUM1 120009Z 10002KT 05/M14 A3012 RMK A01 T00541136  RH  024%=      5-min Rain = 0
KUM1 120010Z 10003KT 05/M14 A3012 RMK A01 T00531137  RH  024%=      5-min Rain = 0
KUM1 120011Z 10003KT 05/M14 A3012 RMK A01 T00521136  RH  024%=      5-min Rain = 0
KUM1 120012Z 09004KT 05/M14 A3012 RMK A01 T00511136  RH  024%=      5-min Rain = 0
KUM1 120013Z 10004KT 05/M14 A3012 RMK A01 T00501135  RH  025%=      5-min Rain = 0
KUM1 120014Z 10004KT 05/M13 A3012 RMK A01 T00501134  RH  025%=      5-min Rain = 0
KUM1 120015Z 10004KT 05/M13 A3012 RMK A01 T00501134  RH  025%=      5-min Rain = 0
KUM1 120016Z 10004KT 05/M14 A3012 RMK A01 T00501135  RH  025%=      5-min Rain = 0
KUM1 120017Z 10004KT 05/M14 A3012 RMK A01 T00491135  RH  025%=      5-min Rain = 0
KUM1 120018Z 10003KT 05/M14 A3012 RMK A01 T00481136  RH  025%=      5-min Rain = 0
KUM1 120019Z 10003KT 05/M14 A3012 RMK A01 T00471135  RH  025%=      5-min Rain = 0
KUM1 120020Z 10003KT 05/M14 A3012 RMK A01 T00461136  RH  025%=      5-min Rain = 0
KUM1 120021Z 10003KT 05/M14 A3012 RMK A01 T00451136  RH  026%=      5-min Rain = 0
KUM1 120022Z 10003KT 05/M14 A3012 RMK A01 T00451136  RH  026%=      5-min Rain = 0
KUM1 120023Z 10003KT 05/M14 A3012 RMK A01 T00451135  RH  026%=      5-min Rain = 0
KUM1 120024Z 10004KT 04/M14 A3012 RMK A01 T00441136  RH  026%=      5-min Rain = 0
KUM1 120025Z 10003KT 04/M14 A3012 RMK A01 T00441136  RH  026%=      5-min Rain = 0
KUM1 120026Z 09003KT 04/M14 A3012 RMK A01 T00431136  RH  026%=      5-min Rain = 0
KUM1 120027Z 09002KT 04/M14 A3012 RMK A01 T00421137  RH  026%=      5-min Rain = 0
KUM1 120028Z 09004KT 04/M14 A3012 RMK A01 T00401138  RH  026%=      5-min Rain = 0
KUM1 120029Z 10004KT 04/M14 A3012 RMK A01 T00401137  RH  026%=      5-min Rain = 0
KUM1 120030Z 10004KT 04/M14 A3012 RMK A01 T00401137  RH  026%=      5-min Rain = 0
KUM1 120031Z 09004KT 04/M14 A3012 RMK A01 T00391137  RH  026%=      5-min Rain = 0
KUM1 120032Z 09004KT 04/M14 A3012 RMK A01 T00381137  RH  027%=      5-min Rain = 0
KUM1 120033Z 10004KT 04/M14 A3013 RMK A01 T00371137  RH  027%=      5-min Rain = 0
KUM1 120034Z 10004KT 04/M14 A3013 RMK A01 T00351138  RH  027%=      5-min Rain = 0
KUM1 120035Z 11004KT 03/M14 A3013 RMK A01 T00341138  RH  027%=      5-min Rain = 0
KUM1 120036Z 11004KT 03/M14 A3013 RMK A01 T00341138  RH  027%=      5-min Rain = 0
KUM1 120037Z 11004KT 03/M14 A3013 RMK A01 T00341137  RH  027%=      5-min Rain = 0
KUM1 120038Z 11004KT 04/M14 A3013 RMK A01 T00351136  RH  027%=      5-min Rain = 0
KUM1 120039Z 10003KT 04/M14 A3013 RMK A01 T00351137  RH  027%=      5-min Rain = 0
KUM1 120040Z 10003KT 04/M14 A3013 RMK A01 T00351137  RH  027%=      5-min Rain = 0
KUM1 120041Z 10004KT 04/M14 A3013 RMK A01 T00351136  RH  027%=      5-min Rain = 0
KUM1 120042Z 10004KT 04/M14 A3013 RMK A01 T00351136  RH  027%=      5-min Rain = 0
KUM1 120043Z 10004KT 04/M14 A3013 RMK A01 T00351136  RH  027%=      5-min Rain = 0
KUM1 120044Z 10005KT 03/M14 A3013 RMK A01 T00341137  RH  027%=      5-min Rain = 0
KUM1 120045Z 09005KT 03/M14 A3013 RMK A01 T00341137  RH  027%=      5-min Rain = 0
KUM1 120046Z 10005KT 03/M14 A3013 RMK A01 T00331137  RH  028%=      5-min Rain = 0
KUM1 120047Z 10005KT 03/M14 A3013 RMK A01 T00321137  RH  028%=      5-min Rain = 0
KUM1 120048Z 10004KT 03/M14 A3013 RMK A01 T00321137  RH  028%=      5-min Rain = 0
KUM1 120049Z 11005KT 03/M14 A3013 RMK A01 T00311136  RH  028%=      5-min Rain = 0
KUM1 120050Z 11005KT 03/M14 A3013 RMK A01 T00291137  RH  028%=      5-min Rain = 0
KUM1 120051Z 12006KT 03/M14 A3013 RMK A01 T00281138  RH  028%=      5-min Rain = 0
KUM1 120052Z 12006KT 03/M14 A3013 RMK A01 T00271138  RH  028%=      5-min Rain = 0
KUM1 120053Z 13006KT 02/M14 A3013 RMK A01 T00241142  RH  028%=      5-min Rain = 0
KUM1 120054Z 13007KT 02/M15 A3013 RMK A01 T00161152  RH  027%=      5-min Rain = 0
KUM1 120055Z 13007KT 01/M16 A3013 RMK A01 T00091158  RH  027%=      5-min Rain = 0
KUM1 120056Z 13006KT 00/M16 A3013 RMK A01 T00021162  RH  028%=      5-min Rain = 0
KUM1 120057Z 13007KT M01/M17 A3013 RMK A01 T10051166  RH  028%=      5-min Rain = 0
KUM1 120058Z 13007KT M01/M17 A3013 RMK A01 T10111169  RH  029%=      5-min Rain = 0
KUM1 120059Z 13008KT M02/M17 A3013 RMK A01 T10151169  RH  030%=      5-min Rain = 0
KUM1 120100Z 13007KT M02/M17 A3013 RMK A01 T10161166  RH  031%=      5-min Rain = 0
KUM1 120101Z 13007KT M02/M16 A3013 RMK A01 T10171163  RH  032%=      5-min Rain = 0
KUM1 120102Z 13007KT M02/M16 A3013 RMK A01 T10151160  RH  032%=      5-min Rain = 0
KUM1 120103Z 13007KT M01/M16 A3013 RMK A01 T10141157  RH  033%=      5-min Rain = 0
KUM1 120104Z 13007KT M01/M16 A3013 RMK A01 T10131155  RH  033%=      5-min Rain = 0
KUM1 120105Z 13007KT M01/M15 A3013 RMK A01 T10111152  RH  033%=      5-min Rain = 0
KUM1 120106Z 13007KT M01/M15 A3013 RMK A01 T10101152  RH  033%=      5-min Rain = 0
KUM1 120107Z 13008KT M01/M15 A3013 RMK A01 T10091151  RH  033%=      5-min Rain = 0
KUM1 120108Z 14008KT M01/M15 A3014 RMK A01 T10091154  RH  032%=      5-min Rain = 0
KUM1 120109Z 14008KT M01/M16 A3014 RMK A01 T10111157  RH  032%=      5-min Rain = 0
KUM1 120110Z 14008KT M01/M16 A3014 RMK A01 T10131160  RH  032%=      5-min Rain = 0
KUM1 120111Z 14008KT M02/M16 A3014 RMK A01 T10151162  RH  032%=      5-min Rain = 0
KUM1 120112Z 14008KT M02/M16 A3014 RMK A01 T10171162  RH  032%=      5-min Rain = 0
KUM1 120113Z 14008KT M02/M16 A3014 RMK A01 T10191164  RH  032%=      5-min Rain = 0
KUM1 120114Z 14007KT M02/M17 A3014 RMK A01 T10211167  RH  032%=      5-min Rain = 0
KUM1 120115Z 14007KT M02/M17 A3014 RMK A01 T10221165  RH  032%=      5-min Rain = 0
KUM1 120116Z 14007KT M02/M16 A3014 RMK A01 T10221163  RH  033%=      5-min Rain = 0
KUM1 120117Z 14007KT M02/M16 A3014 RMK A01 T10221163  RH  033%=      5-min Rain = 0
KUM1 120118Z 14007KT M02/M16 A3014 RMK A01 T10221163  RH  033%=      5-min Rain = 0
KUM1 120119Z 14007KT M02/M16 A3014 RMK A01 T10221162  RH  033%=      5-min Rain = 0
KUM1 120120Z 14007KT M02/M16 A3014 RMK A01 T10221162  RH  033%=      5-min Rain = 0
KUM1 120121Z 14007KT M02/M16 A3014 RMK A01 T10231164  RH  033%=      5-min Rain = 0
KUM1 120122Z 14007KT M03/M17 A3014 RMK A01 T10251166  RH  033%=      5-min Rain = 0
KUM1 120123Z 14008KT M03/M17 A3014 RMK A01 T10271168  RH  033%=      5-min Rain = 0
KUM1 120124Z 14008KT M03/M17 A3014 RMK A01 T10271167  RH  033%=      5-min Rain = 0
KUM1 120125Z 14008KT M03/M17 A3014 RMK A01 T10281167  RH  034%=      5-min Rain = 0
KUM1 120126Z 14007KT M03/M17 A3014 RMK A01 T10291167  RH  034%=      5-min Rain = 0
KUM1 120127Z 14007KT M03/M17 A3014 RMK A01 T10301167  RH  034%=      5-min Rain = 0
KUM1 120128Z 14007KT M03/M17 A3014 RMK A01 T10321166  RH  035%=      5-min Rain = 0
KUM1 120129Z 14007KT M03/M16 A3014 RMK A01 T10321164  RH  035%=      5-min Rain = 0
KUM1 120130Z 13007KT M03/M16 A3014 RMK A01 T10311164  RH  035%=      5-min Rain = 0
KUM1 120131Z 14007KT M03/M16 A3014 RMK A01 T10311164  RH  035%=      5-min Rain = 0
KUM1 120132Z 14006KT M03/M16 A3014 RMK A01 T10311164  RH  035%=      5-min Rain = 0
KUM1 120133Z 14007KT M03/M16 A3014 RMK A01 T10301161  RH  036%=      5-min Rain = 0
KUM1 120134Z 14007KT M03/M16 A3014 RMK A01 T10301159  RH  036%=      5-min Rain = 0
KUM1 120135Z 13007KT M03/M16 A3014 RMK A01 T10291160  RH  036%=      5-min Rain = 0
KUM1 120136Z 13008KT M03/M16 A3014 RMK A01 T10301162  RH  035%=      5-min Rain = 0
KUM1 120137Z 14008KT M03/M16 A3015 RMK A01 T10321163  RH  035%=      5-min Rain = 0
KUM1 120138Z 14008KT M03/M16 A3015 RMK A01 T10331163  RH  036%=      5-min Rain = 0
KUM1 120139Z 14007KT M03/M16 A3015 RMK A01 T10321162  RH  036%=      5-min Rain = 0
KUM1 120140Z 14007KT M03/M16 A3015 RMK A01 T10321162  RH  036%=      5-min Rain = 0
KUM1 120141Z 14007KT M03/M16 A3015 RMK A01 T10321163  RH  036%=      5-min Rain = 0
KUM1 120142Z 14007KT M03/M16 A3015 RMK A01 T10321163  RH  035%=      5-min Rain = 0
KUM1 120143Z 15008KT M03/M16 A3015 RMK A01 T10321163  RH  036%=      5-min Rain = 0
KUM1 120144Z 15008KT M03/M16 A3015 RMK A01 T10321164  RH  035%=      5-min Rain = 0
KUM1 120145Z 14008KT M03/M16 A3015 RMK A01 T10321164  RH  035%=      5-min Rain = 0
KUM1 120146Z 14008KT M03/M17 A3015 RMK A01 T10331167  RH  035%=      5-min Rain = 0
KUM1 120147Z 14008KT M04/M17 A3015 RMK A01 T10351168  RH  035%=      5-min Rain = 0
KUM1 120148Z 15008KT M04/M17 A3015 RMK A01 T10361170  RH  035%=      5-min Rain = 0
KUM1 120149Z 14009KT M04/M17 A3015 RMK A01 T10381170  RH  035%=      5-min Rain = 0
KUM1 120150Z 15009KT M04/M17 A3015 RMK A01 T10391169  RH  036%=      5-min Rain = 0
KUM1 120151Z 15008KT M04/M17 A3015 RMK A01 T10391167  RH  036%=      5-min Rain = 0
KUM1 120152Z 15008KT M04/M16 A3015 RMK A01 T10381163  RH  037%=      5-min Rain = 0
KUM1 120153Z 15008KT M04/M16 A3015 RMK A01 T10361162  RH  037%=      5-min Rain = 0
KUM1 120154Z 15008KT M04/M16 A3016 RMK A01 T10361162  RH  037%=      5-min Rain = 0
KUM1 120155Z 15008KT M04/M16 A3016 RMK A01 T10351163  RH  037%=      5-min Rain = 0
KUM1 120156Z 15009KT M04/M16 A3016 RMK A01 T10351162  RH  037%=      5-min Rain = 0
KUM1 120157Z 15009KT M03/M16 A3016 RMK A01 T10341161  RH  037%=      5-min Rain = 0
KUM1 120158Z 15009KT M03/M16 A3016 RMK A01 T10331160  RH  037%=      5-min Rain = 0
KUM1 120159Z 15009KT M03/M16 A3016 RMK A01 T10321159  RH  037%=      5-min Rain = 0
KUM1 120200Z 15009KT M03/M16 A3016 RMK A01 T10311157  RH  037%=      5-min Rain = 0
KUM1 120201Z 15009KT M03/M16 A3016 RMK A01 T10291156  RH  037%=      5-min Rain = 0
KUM1 120202Z 15008KT M03/M16 A3016 RMK A01 T10281156  RH  037%=      5-min Rain = 0
KUM1 120203Z 15008KT M03/M16 A3016 RMK A01 T10281157  RH  036%=      5-min Rain = 0
KUM1 120204Z 15008KT M03/M16 A3016 RMK A01 T10291159  RH  036%=      5-min Rain = 0
KUM1 120205Z 15008KT M03/M16 A3016 RMK A01 T10301160  RH  036%=      5-min Rain = 0
KUM1 120206Z 15008KT M03/M16 A3016 RMK A01 T10301161  RH  036%=      5-min Rain = 0
KUM1 120207Z 15009KT M03/M16 A3016 RMK A01 T10311161  RH  036%=      5-min Rain = 0
KUM1 120208Z 15009KT M03/M16 A3016 RMK A01 T10311160  RH  036%=      5-min Rain = 0
KUM1 120209Z 15009KT M03/M16 A3016 RMK A01 T10311159  RH  037%=      5-min Rain = 0
KUM1 120210Z 15009KT M03/M16 A3016 RMK A01 T10301157  RH  037%=      5-min Rain = 0
KUM1 120211Z 14009KT M03/M16 A3016 RMK A01 T10291156  RH  037%=      5-min Rain = 0
KUM1 120212Z 15009KT M03/M16 A3016 RMK A01 T10281155  RH  037%=      5-min Rain = 0
KUM1 120213Z 15009KT M03/M15 A3016 RMK A01 T10281154  RH  037%=      5-min Rain = 0
KUM1 120214Z 15009KT M03/M15 A3016 RMK A01 T10271154  RH  037%=      5-min Rain = 0
KUM1 120215Z 15009KT M03/M15 A3016 RMK A01 T10271154  RH  037%=      5-min Rain = 0
KUM1 120216Z 15009KT M03/M15 A3016 RMK A01 T10261154  RH  037%=      5-min Rain = 0
KUM1 120217Z 15009KT M03/M16 A3016 RMK A01 T10261156  RH  036%=      5-min Rain = 0
KUM1 120218Z 15009KT M03/M16 A3016 RMK A01 T10271157  RH  036%=      5-min Rain = 0
KUM1 120219Z 15009KT M03/M16 A3016 RMK A01 T10271157  RH  036%=      5-min Rain = 0
KUM1 120220Z 14009KT M03/M16 A3016 RMK A01 T10281158  RH  036%=      5-min Rain = 0
KUM1 120221Z 14009KT M03/M16 A3017 RMK A01 T10291158  RH  036%=      5-min Rain = 0
KUM1 120222Z 14009KT M03/M16 A3017 RMK A01 T10291158  RH  036%=      5-min Rain = 0
KUM1 120223Z 14008KT M03/M16 A3017 RMK A01 T10301158  RH  036%=      5-min Rain = 0
KUM1 120224Z 14008KT M03/M16 A3017 RMK A01 T10291157  RH  037%=      5-min Rain = 0
KUM1 120225Z 14008KT M03/M16 A3017 RMK A01 T10291157  RH  037%=      5-min Rain = 0
KUM1 120226Z 14008KT M03/M16 A3017 RMK A01 T10281157  RH  036%=      5-min Rain = 0
KUM1 120227Z 14008KT M03/M16 A3017 RMK A01 T10281157  RH  036%=      5-min Rain = 0
KUM1 120228Z 14007KT M03/M16 A3017 RMK A01 T10291158  RH  036%=      5-min Rain = 0
KUM1 120229Z 14007KT M03/M16 A3017 RMK A01 T10301159  RH  036%=      5-min Rain = 0
KUM1 120230Z 14007KT M03/M16 A3017 RMK A01 T10311160  RH  036%=      5-min Rain = 0
KUM1 120231Z 14007KT M03/M16 A3017 RMK A01 T10321161  RH  036%=      5-min Rain = 0
KUM1 120232Z 14007KT M03/M16 A3017 RMK A01 T10331162  RH  036%=      5-min Rain = 0
KUM1 120233Z 14007KT M03/M16 A3017 RMK A01 T10331162  RH  036%=      5-min Rain = 0
KUM1 120234Z 14007KT M03/M16 A3017 RMK A01 T10341162  RH  036%=      5-min Rain = 0
KUM1 120235Z 14007KT M04/M16 A3017 RMK A01 T10351164  RH  036%=      5-min Rain = 0
KUM1 120236Z 14008KT M04/M16 A3017 RMK A01 T10361164  RH  036%=      5-min Rain = 0
KUM1 120237Z 14007KT M04/M17 A3017 RMK A01 T10371165  RH  036%=      5-min Rain = 0
KUM1 120238Z 14007KT M04/M17 A3017 RMK A01 T10391165  RH  037%=      5-min Rain = 0
KUM1 120239Z 14007KT M04/M17 A3017 RMK A01 T10391165  RH  037%=      5-min Rain = 0
KUM1 120240Z 14007KT M04/M17 A3017 RMK A01 T10401165  RH  037%=      5-min Rain = 0
KUM1 120241Z 14007KT M04/M16 A3017 RMK A01 T10401164  RH  037%=      5-min Rain = 0
KUM1 120242Z 14007KT M04/M16 A3017 RMK A01 T10401164  RH  038%=      5-min Rain = 0
KUM1 120243Z 14006KT M04/M16 A3017 RMK A01 T10411164  RH  038%=      5-min Rain = 0
KUM1 120244Z 14006KT M04/M16 A3017 RMK A01 T10411164  RH  038%=      5-min Rain = 0
KUM1 120245Z 14006KT M04/M17 A3017 RMK A01 T10421165  RH  038%=      5-min Rain = 0
KUM1 120246Z 14006KT M04/M17 A3017 RMK A01 T10421166  RH  038%=      5-min Rain = 0
KUM1 120247Z 14006KT M04/M17 A3017 RMK A01 T10431165  RH  038%=      5-min Rain = 0
KUM1 120248Z 14006KT M04/M17 A3017 RMK A01 T10431165  RH  038%=      5-min Rain = 0
KUM1 120249Z 14006KT M04/M17 A3017 RMK A01 T10441166  RH  038%=      5-min Rain = 0
KUM1 120250Z 14007KT M05/M17 A3017 RMK A01 T10451167  RH  038%=      5-min Rain = 0
KUM1 120251Z 14007KT M05/M17 A3017 RMK A01 T10461168  RH  038%=      5-min Rain = 0
KUM1 120252Z 14007KT M05/M17 A3017 RMK A01 T10471169  RH  038%=      5-min Rain = 0
KUM1 120253Z 14007KT M05/M17 A3017 RMK A01 T10471169  RH  038%=      5-min Rain = 0
KUM1 120254Z 14007KT M05/M17 A3017 RMK A01 T10471167  RH  039%=      5-min Rain = 0
KUM1 120255Z 14007KT M05/M17 A3017 RMK A01 T10461166  RH  038%=      5-min Rain = 0
KUM1 120256Z 14007KT M05/M17 A3017 RMK A01 T10461167  RH  038%=      5-min Rain = 0
KUM1 120257Z 14006KT M05/M17 A3017 RMK A01 T10471168  RH  038%=      5-min Rain = 0
KUM1 120258Z 14006KT M05/M17 A3017 RMK A01 T10471168  RH  038%=      5-min Rain = 0
KUM1 120259Z 14006KT M05/M17 A3017 RMK A01 T10471168  RH  038%=      5-min Rain = 0
KUM1 120300Z 14007KT M05/M17 A3017 RMK A01 T10471167  RH  039%=      5-min Rain = 0
KUM1 120301Z 14007KT M05/M16 A3017 RMK A01 T10461164  RH  039%=      5-min Rain = 0
KUM1 120302Z 14007KT M04/M16 A3017 RMK A01 T10441162  RH  039%=      5-min Rain = 0
KUM1 120303Z 14008KT M04/M16 A3017 RMK A01 T10441164  RH  039%=      5-min Rain = 0
KUM1 120304Z 14008KT M05/M17 A3017 RMK A01 T10451166  RH  038%=      5-min Rain = 0
KUM1 120305Z 14008KT M05/M17 A3017 RMK A01 T10471169  RH  038%=      5-min Rain = 0
KUM1 120306Z 14008KT M05/M17 A3017 RMK A01 T10481169  RH  038%=      5-min Rain = 0
KUM1 120307Z 15007KT M05/M17 A3017 RMK A01 T10491169  RH  038%=      5-min Rain = 0
KUM1 120308Z 15008KT M05/M17 A3017 RMK A01 T10501170  RH  038%=      5-min Rain = 0
KUM1 120309Z 15008KT M05/M17 A3017 RMK A01 T10511170  RH  039%=      5-min Rain = 0
KUM1 120310Z 15008KT M05/M17 A3017 RMK A01 T10511171  RH  038%=      5-min Rain = 0
KUM1 120311Z 15009KT M05/M17 A3017 RMK A01 T10521173  RH  038%=      5-min Rain = 0
KUM1 120312Z 15009KT M05/M17 A3017 RMK A01 T10531174  RH  038%=      5-min Rain = 0
KUM1 120313Z 15010KT M05/M17 A3017 RMK A01 T10531172  RH  039%=      5-min Rain = 0
KUM1 120314Z 15010KT M05/M17 A3017 RMK A01 T10511169  RH  039%=      5-min Rain = 0
KUM1 120315Z 15010KT M05/M17 A3017 RMK A01 T10491168  RH  039%=      5-min Rain = 0
KUM1 120316Z 15009KT M05/M17 A3017 RMK A01 T10481168  RH  038%=      5-min Rain = 0
KUM1 120317Z 15009KT M05/M17 A3017 RMK A01 T10481173  RH  037%=      5-min Rain = 0
KUM1 120318Z 15008KT M05/M18 A3017 RMK A01 T10511177  RH  037%=      5-min Rain = 0
KUM1 120319Z 15007KT M05/M18 A3017 RMK A01 T10521176  RH  037%=      5-min Rain = 0
KUM1 120320Z 15007KT M05/M17 A3017 RMK A01 T10531173  RH  038%=      5-min Rain = 0
KUM1 120321Z 15007KT M05/M17 A3017 RMK A01 T10521170  RH  039%=      5-min Rain = 0
KUM1 120322Z 15007KT M05/M17 A3017 RMK A01 T10511169  RH  039%=      5-min Rain = 0
KUM1 120323Z 15007KT M05/M17 A3017 RMK A01 T10511168  RH  039%=      5-min Rain = 0
KUM1 120324Z 15007KT M05/M17 A3017 RMK A01 T10511167  RH  040%=      5-min Rain = 0
KUM1 120325Z 15008KT M05/M17 A3018 RMK A01 T10501166  RH  040%=      5-min Rain = 0
KUM1 120326Z 15008KT M05/M17 A3018 RMK A01 T10491165  RH  040%=      5-min Rain = 0
KUM1 120327Z 15009KT M05/M17 A3018 RMK A01 T10491167  RH  039%=      5-min Rain = 0
KUM1 120328Z 15009KT M05/M17 A3018 RMK A01 T10501169  RH  039%=      5-min Rain = 0
KUM1 120329Z 15009KT M05/M17 A3018 RMK A01 T10521172  RH  038%=      5-min Rain = 0
KUM1 120330Z 15009KT M05/M17 A3018 RMK A01 T10531174  RH  038%=      5-min Rain = 0
KUM1 120331Z 14010KT M06/M18 A3018 RMK A01 T10551176  RH  038%=      5-min Rain = 0
KUM1 120332Z 14010KT M05/M17 A3017 RMK A01 T10531172  RH  039%=      5-min Rain = 0
KUM1 120333Z 14011KT M05/M17 A3017 RMK A01 T10491167  RH  039%=      5-min Rain = 0
KUM1 120334Z 14010KT M05/M16 A3017 RMK A01 T10451164  RH  039%=      5-min Rain = 0
KUM1 120335Z 15010KT M04/M16 A3017 RMK A01 T10421162  RH  038%=      5-min Rain = 0
KUM1 120336Z 15010KT M04/M16 A3017 RMK A01 T10391163  RH  038%=      5-min Rain = 0
KUM1 120337Z 15010KT M04/M16 A3017 RMK A01 T10381163  RH  037%=      5-min Rain = 0
KUM1 120338Z 15010KT M04/M16 A3017 RMK A01 T10371164  RH  037%=      5-min Rain = 0
KUM1 120339Z 15010KT M04/M16 A3017 RMK A01 T10371164  RH  037%=      5-min Rain = 0
KUM1 120340Z 15010KT M04/M16 A3017 RMK A01 T10361164  RH  036%=      5-min Rain = 0
KUM1 120341Z 15009KT M04/M16 A3017 RMK A01 T10351164  RH  036%=      5-min Rain = 0
KUM1 120342Z 15010KT M04/M16 A3017 RMK A01 T10351164  RH  036%=      5-min Rain = 0
KUM1 120343Z 15010KT M03/M16 A3017 RMK A01 T10341164  RH  036%=      5-min Rain = 0
KUM1 120344Z 15010KT M03/M16 A3018 RMK A01 T10331164  RH  036%=      5-min Rain = 0
KUM1 120345Z 15009KT M03/M17 A3018 RMK A01 T10331165  RH  035%=      5-min Rain = 0
KUM1 120346Z 15010KT M04/M17 A3018 RMK A01 T10351168  RH  035%=      5-min Rain = 0
KUM1 120347Z 15009KT M04/M17 A3018 RMK A01 T10381170  RH  035%=      5-min Rain = 0
KUM1 120348Z 15009KT M04/M17 A3018 RMK A01 T10391168  RH  036%=      5-min Rain = 0
KUM1 120349Z 15010KT M04/M17 A3018 RMK A01 T10391167  RH  036%=      5-min Rain = 0
KUM1 120350Z 15009KT M04/M17 A3018 RMK A01 T10391166  RH  037%=      5-min Rain = 0
KUM1 120351Z 15009KT M04/M17 A3018 RMK A01 T10391165  RH  037%=      5-min Rain = 0
KUM1 120352Z 15009KT M04/M17 A3018 RMK A01 T10391166  RH  037%=      5-min Rain = 0
KUM1 120353Z 15009KT M04/M17 A3018 RMK A01 T10391166  RH  037%=      5-min Rain = 0
KUM1 120354Z 15010KT M04/M17 A3018 RMK A01 T10401166  RH  037%=      5-min Rain = 0
KUM1 120355Z 15009KT M04/M17 A3018 RMK A01 T10401165  RH  037%=      5-min Rain = 0
KUM1 120356Z 16009KT M04/M17 A3018 RMK A01 T10391165  RH  037%=      5-min Rain = 0
KUM1 120357Z 16008KT M04/M17 A3018 RMK A01 T10401166  RH  037%=      5-min Rain = 0
KUM1 120358Z 16007KT M04/M17 A3018 RMK A01 T10411166  RH  037%=      5-min Rain = 0
KUM1 120359Z 15007KT M04/M17 A3018 RMK A01 T10421167  RH  037%=      5-min Rain = 0
KUM1 120400Z 15006KT M04/M17 A3018 RMK A01 T10431168  RH  037%=      5-min Rain = 0
KUM1 120401Z 16006KT M04/M17 A3018 RMK A01 T10431168  RH  037%=      5-min Rain = 0
KUM1 120402Z 16006KT M04/M17 A3018 RMK A01 T10431166  RH  038%=      5-min Rain = 0
KUM1 120403Z 16006KT M04/M17 A3018 RMK A01 T10431166  RH  038%=      5-min Rain = 0
KUM1 120404Z 16006KT M04/M17 A3018 RMK A01 T10431166  RH  038%=      5-min Rain = 0
KUM1 120405Z 16006KT M04/M17 A3018 RMK A01 T10441166  RH  038%=      5-min Rain = 0
KUM1 120406Z 17006KT M05/M17 A3018 RMK A01 T10451167  RH  038%=      5-min Rain = 0
KUM1 120407Z 18006KT M05/M17 A3018 RMK A01 T10461167  RH  038%=      5-min Rain = 0
KUM1 120408Z 16006KT M05/M17 A3018 RMK A01 T10461165  RH  039%=      5-min Rain = 0
KUM1 120409Z 16007KT M05/M17 A3018 RMK A01 T10471165  RH  039%=      5-min Rain = 0
KUM1 120410Z 17007KT M05/M17 A3018 RMK A01 T10481165  RH  039%=      5-min Rain = 0
KUM1 120411Z 17007KT M05/M17 A3018 RMK A01 T10491166  RH  039%=      5-min Rain = 0
KUM1 120412Z 17008KT M05/M17 A3018 RMK A01 T10501167  RH  040%=      5-min Rain = 0
KUM1 120413Z 17009KT M05/M17 A3018 RMK A01 T10501166  RH  040%=      5-min Rain = 0
KUM1 120414Z 17008KT M05/M17 A3018 RMK A01 T10501165  RH  040%=      5-min Rain = 0
KUM1 120415Z 17008KT M05/M16 A3018 RMK A01 T10491164  RH  040%=      5-min Rain = 0
KUM1 120416Z 18007KT M05/M16 A3018 RMK A01 T10491164  RH  040%=      5-min Rain = 0
KUM1 120417Z 18008KT M05/M17 A3018 RMK A01 T10491166  RH  040%=      5-min Rain = 0
KUM1 120418Z 18008KT M05/M17 A3018 RMK A01 T10501167  RH  040%=      5-min Rain = 0
KUM1 120419Z 17008KT M05/M17 A3018 RMK A01 T10521168  RH  040%=      5-min Rain = 0
KUM1 120420Z 17008KT M05/M17 A3018 RMK A01 T10531169  RH  040%=      5-min Rain = 0
KUM1 120421Z 18009KT M05/M17 A3018 RMK A01 T10541170  RH  040%=      5-min Rain = 0
KUM1 120422Z 18009KT M05/M17 A3018 RMK A01 T10541169  RH  040%=      5-min Rain = 0
KUM1 120423Z 18009KT M06/M17 A3018 RMK A01 T10551169  RH  040%=      5-min Rain = 0
KUM1 120424Z 18009KT M05/M17 A3018 RMK A01 T10541168  RH  040%=      5-min Rain = 0
KUM1 120425Z 18008KT M05/M17 A3018 RMK A01 T10531167  RH  040%=      5-min Rain = 0
KUM1 120426Z 18008KT M05/M17 A3018 RMK A01 T10531168  RH  040%=      5-min Rain = 0
KUM1 120427Z 18009KT M05/M17 A3018 RMK A01 T10541168  RH  040%=      5-min Rain = 0
KUM1 120428Z 18009KT M05/M17 A3018 RMK A01 T10541168  RH  040%=      5-min Rain = 0
KUM1 120429Z 18009KT M05/M17 A3018 RMK A01 T10541168  RH  040%=      5-min Rain = 0
KUM1 120430Z 18009KT M05/M17 A3018 RMK A01 T10541167  RH  040%=      5-min Rain = 0
KUM1 120431Z 18009KT M05/M17 A3018 RMK A01 T10541168  RH  040%=      5-min Rain = 0
KUM1 120432Z 18009KT M05/M17 A3018 RMK A01 T10541169  RH  040%=      5-min Rain = 0
KUM1 120433Z 18009KT M05/M17 A3018 RMK A01 T10541168  RH  040%=      5-min Rain = 0
KUM1 120434Z 18009KT M06/M17 A3018 RMK A01 T10551168  RH  041%=      5-min Rain = 0
KUM1 120435Z 18009KT M05/M17 A3018 RMK A01 T10541167  RH  041%=      5-min Rain = 0
KUM1 120436Z 18009KT M05/M17 A3018 RMK A01 T10521165  RH  041%=      5-min Rain = 0
KUM1 120437Z 18009KT M05/M16 A3018 RMK A01 T10501163  RH  041%=      5-min Rain = 0
KUM1 120438Z 18009KT M05/M16 A3018 RMK A01 T10481163  RH  040%=      5-min Rain = 0
KUM1 120439Z 18010KT M05/M16 A3018 RMK A01 T10461162  RH  040%=      5-min Rain = 0
KUM1 120440Z 18010KT M04/M16 A3018 RMK A01 T10441161  RH  040%=      5-min Rain = 0
KUM1 120441Z 18010KT M04/M16 A3018 RMK A01 T10431161  RH  039%=      5-min Rain = 0
KUM1 120442Z 18010KT M04/M16 A3018 RMK A01 T10421161  RH  039%=      5-min Rain = 0
KUM1 120443Z 17010KT M04/M16 A3018 RMK A01 T10401159  RH  039%=      5-min Rain = 0
KUM1 120444Z 17010KT M04/M16 A3018 RMK A01 T10381159  RH  039%=      5-min Rain = 0
KUM1 120445Z 17010KT M04/M16 A3018 RMK A01 T10371159  RH  038%=      5-min Rain = 0
KUM1 120446Z 17010KT M04/M16 A3018 RMK A01 T10371159  RH  038%=      5-min Rain = 0
KUM1 120447Z 18010KT M04/M16 A3018 RMK A01 T10371159  RH  038%=      5-min Rain = 0
KUM1 120448Z 18009KT M04/M16 A3018 RMK A01 T10361159  RH  038%=      5-min Rain = 0
KUM1 120449Z 18009KT M04/M16 A3018 RMK A01 T10361159  RH  038%=      5-min Rain = 0
KUM1 120450Z 18009KT M04/M16 A3018 RMK A01 T10361159  RH  038%=      5-min Rain = 0
KUM1 120451Z 18010KT M04/M16 A3018 RMK A01 T10361159  RH  038%=      5-min Rain = 0
KUM1 120452Z 18009KT M04/M16 A3018 RMK A01 T10361159  RH  038%=      5-min Rain = 0
KUM1 120453Z 18009KT M04/M16 A3018 RMK A01 T10361159  RH  038%=      5-min Rain = 0
KUM1 120454Z 18009KT M04/M16 A3018 RMK A01 T10371161  RH  038%=      5-min Rain = 0
KUM1 120455Z 18009KT M04/M16 A3018 RMK A01 T10391161  RH  038%=      5-min Rain = 0
KUM1 120456Z 18009KT M04/M16 A3018 RMK A01 T10401161  RH  038%=      5-min Rain = 0
KUM1 120457Z 18009KT M04/M16 A3018 RMK A01 T10411161  RH  039%=      5-min Rain = 0
KUM1 120458Z 18009KT M04/M16 A3018 RMK A01 T10411161  RH  039%=      5-min Rain = 0
KUM1 120459Z 18009KT M04/M16 A3018 RMK A01 T10421162  RH  039%=      5-min Rain = 0
KUM1 120500Z 18010KT M04/M16 A3018 RMK A01 T10421161  RH  039%=      5-min Rain = 0
KUM1 120501Z 18010KT M04/M16 A3018 RMK A01 T10421161  RH  039%=      5-min Rain = 0
KUM1 120502Z 18010KT M04/M16 A3018 RMK A01 T10421161  RH  039%=      5-min Rain = 0
KUM1 120503Z 18010KT M04/M16 A3018 RMK A01 T10421161  RH  039%=      5-min Rain = 0
KUM1 120504Z 18010KT M04/M16 A3018 RMK A01 T10431161  RH  039%=      5-min Rain = 0
KUM1 120505Z 18010KT M04/M16 A3018 RMK A01 T10431161  RH  039%=      5-min Rain = 0
KUM1 120506Z 18009KT M04/M16 A3018 RMK A01 T10431161  RH  039%=      5-min Rain = 0
KUM1 120507Z 18009KT M04/M16 A3018 RMK A01 T10431161  RH  039%=      5-min Rain = 0
KUM1 120508Z 18009KT M04/M16 A3018 RMK A01 T10431161  RH  039%=      5-min Rain = 0
KUM1 120509Z 19008KT M04/M16 A3018 RMK A01 T10441162  RH  039%=      5-min Rain = 0
KUM1 120510Z 19008KT M04/M16 A3018 RMK A01 T10441162  RH  039%=      5-min Rain = 0
KUM1 120511Z 18009KT M04/M16 A3018 RMK A01 T10441162  RH  039%=      5-min Rain = 0
KUM1 120512Z 18009KT M04/M16 A3018 RMK A01 T10441161  RH  040%=      5-min Rain = 0
KUM1 120513Z 18009KT M04/M16 A3018 RMK A01 T10441161  RH  040%=      5-min Rain = 0
KUM1 120514Z 18009KT M04/M16 A3018 RMK A01 T10441160  RH  040%=      5-min Rain = 0
KUM1 120515Z 18009KT M04/M16 A3018 RMK A01 T10441161  RH  040%=      5-min Rain = 0
KUM1 120516Z 19009KT M05/M16 A3018 RMK A01 T10451161  RH  040%=      5-min Rain = 0
KUM1 120517Z 19009KT M05/M16 A3018 RMK A01 T10461162  RH  040%=      5-min Rain = 0
KUM1 120518Z 19009KT M05/M16 A3018 RMK A01 T10471163  RH  040%=      5-min Rain = 0
KUM1 120519Z 19009KT M05/M16 A3018 RMK A01 T10491164  RH  040%=      5-min Rain = 0
KUM1 120520Z 18009KT M05/M17 A3018 RMK A01 T10501165  RH  040%=      5-min Rain = 0
KUM1 120521Z 18008KT M05/M17 A3018 RMK A01 T10521165  RH  041%=      5-min Rain = 0
KUM1 120522Z 18008KT M05/M17 A3019 RMK A01 T10531166  RH  041%=      5-min Rain = 0
KUM1 120523Z 18008KT M06/M17 A3019 RMK A01 T10551167  RH  041%=      5-min Rain = 0
KUM1 120524Z 18009KT M06/M17 A3019 RMK A01 T10571168  RH  041%=      5-min Rain = 0
KUM1 120525Z 18009KT M06/M17 A3019 RMK A01 T10581168  RH  042%=      5-min Rain = 0
KUM1 120526Z 18009KT M06/M17 A3019 RMK A01 T10591167  RH  042%=      5-min Rain = 0
KUM1 120527Z 18009KT M06/M17 A3019 RMK A01 T10591166  RH  042%=      5-min Rain = 0
KUM1 120528Z 18009KT M06/M17 A3019 RMK A01 T10591166  RH  043%=      5-min Rain = 0
KUM1 120529Z 17008KT M06/M17 A3019 RMK A01 T10581165  RH  043%=      5-min Rain = 0
KUM1 120530Z 18009KT M06/M16 A3019 RMK A01 T10571164  RH  043%=      5-min Rain = 0
KUM1 120531Z 18009KT M06/M16 A3019 RMK A01 T10561163  RH  043%=      5-min Rain = 0
KUM1 120532Z 18009KT M06/M16 A3019 RMK A01 T10551163  RH  042%=      5-min Rain = 0
KUM1 120533Z 18009KT M06/M16 A3019 RMK A01 T10561164  RH  042%=      5-min Rain = 0
KUM1 120534Z 18009KT M06/M17 A3019 RMK A01 T10561165  RH  042%=      5-min Rain = 0
KUM1 120535Z 18009KT M06/M17 A3019 RMK A01 T10571166  RH  042%=      5-min Rain = 0
KUM1 120536Z 18009KT M06/M17 A3019 RMK A01 T10581167  RH  042%=      5-min Rain = 0
KUM1 120537Z 18008KT M06/M17 A3019 RMK A01 T10591167  RH  042%=      5-min Rain = 0
KUM1 120538Z 19008KT M06/M17 A3019 RMK A01 T10591167  RH  042%=      5-min Rain = 0
KUM1 120539Z 18008KT M06/M17 A3019 RMK A01 T10611167  RH  043%=      5-min Rain = 0
KUM1 120540Z 18009KT M06/M17 A3019 RMK A01 T10621167  RH  043%=      5-min Rain = 0
KUM1 120541Z 19008KT M06/M17 A3019 RMK A01 T10631167  RH  043%=      5-min Rain = 0
KUM1 120542Z 19008KT M06/M17 A3019 RMK A01 T10641168  RH  043%=      5-min Rain = 0
KUM1 120543Z 19007KT M07/M17 A3019 RMK A01 T10651169  RH  044%=      5-min Rain = 0
KUM1 120544Z 19007KT M07/M17 A3019 RMK A01 T10661169  RH  044%=      5-min Rain = 0
KUM1 120545Z 19007KT M07/M17 A3019 RMK A01 T10681169  RH  044%=      5-min Rain = 0
KUM1 120546Z 19007KT M07/M17 A3019 RMK A01 T10691168  RH  045%=      5-min Rain = 0
KUM1 120547Z 18008KT M07/M17 A3019 RMK A01 T10701168  RH  045%=      5-min Rain = 0
KUM1 120548Z 18007KT M07/M17 A3019 RMK A01 T10701168  RH  046%=      5-min Rain = 0
KUM1 120549Z 19008KT M07/M17 A3019 RMK A01 T10701168  RH  046%=      5-min Rain = 0
KUM1 120550Z 19007KT M07/M17 A3019 RMK A01 T10711169  RH  046%=      5-min Rain = 0
KUM1 120551Z 18008KT M07/M17 A3019 RMK A01 T10711169  RH  046%=      5-min Rain = 0
KUM1 120552Z 18008KT M07/M17 A3019 RMK A01 T10711168  RH  046%=      5-min Rain = 0
KUM1 120553Z 18008KT M07/M17 A3019 RMK A01 T10701167  RH  046%=      5-min Rain = 0
KUM1 120554Z 18009KT M07/M17 A3019 RMK A01 T10711168  RH  046%=      5-min Rain = 0
KUM1 120555Z 18009KT M07/M17 A3019 RMK A01 T10711168  RH  046%=      5-min Rain = 0
KUM1 120556Z 18008KT M07/M17 A3019 RMK A01 T10711168  RH  046%=      5-min Rain = 0
KUM1 120557Z 18008KT M07/M17 A3019 RMK A01 T10711168  RH  046%=      5-min Rain = 0
KUM1 120558Z 18008KT M07/M17 A3019 RMK A01 T10711168  RH  046%=      5-min Rain = 0
KUM1 120559Z 18007KT M07/M17 A3019 RMK A01 T10711168  RH  046%=      5-min Rain = 0

Page generated in 0.075 seconds.